Observation data for Adrian on 12/09/2018      Previous  Date  Next       Current Mesonet Observations  Soil Data  Daily Summary Page  Observations in Plain Language
KAD1 090600Z 19009KT M04/M06 A3028 RMK A01 T10351057  RH  085%=      5-min Rain = 0
KAD1 090601Z 19009KT M04/M06 A3028 RMK A01 T10371057  RH  086%=      5-min Rain = 0
KAD1 090602Z 19009KT M04/M05 A3028 RMK A01 T10351053  RH  087%=      5-min Rain = 0
KAD1 090603Z 18009KT M03/M05 A3028 RMK A01 T10341054  RH  087%=      5-min Rain = 0
KAD1 090604Z 19010KT M04/M06 A3028 RMK A01 T10351056  RH  086%=      5-min Rain = 0
KAD1 090605Z 19010KT M04/M06 A3028 RMK A01 T10371056  RH  086%=      5-min Rain = 0
KAD1 090606Z 19009KT M04/M05 A3028 RMK A01 T10351053  RH  087%=      5-min Rain = 0
KAD1 090607Z 19009KT M04/M05 A3028 RMK A01 T10351053  RH  087%=      5-min Rain = 0
KAD1 090608Z 19008KT M03/M05 A3028 RMK A01 T10341053  RH  087%=      5-min Rain = 0
KAD1 090609Z 19009KT M04/M06 A3028 RMK A01 T10351055  RH  086%=      5-min Rain = 0
KAD1 090610Z 19009KT M04/M05 A3028 RMK A01 T10351053  RH  087%=      5-min Rain = 0
KAD1 090611Z 19009KT M03/M05 A3028 RMK A01 T10311046  RH  090%=      5-min Rain = 0
KAD1 090612Z 19008KT M03/M04 A3028 RMK A01 T10281043  RH  090%=      5-min Rain = 0
KAD1 090613Z 19008KT M03/M05 A3028 RMK A01 T10281045  RH  088%=      5-min Rain = 0
KAD1 090614Z 19008KT M03/M05 A3028 RMK A01 T10301051  RH  086%=      5-min Rain = 0
KAD1 090615Z 19009KT M03/M05 A3028 RMK A01 T10311050  RH  087%=      5-min Rain = 0
KAD1 090616Z 19009KT M03/M05 A3028 RMK A01 T10311049  RH  088%=      5-min Rain = 0
KAD1 090617Z 19010KT M03/M05 A3028 RMK A01 T10321049  RH  088%=      5-min Rain = 0
KAD1 090618Z 19009KT M03/M05 A3028 RMK A01 T10321049  RH  088%=      5-min Rain = 0
KAD1 090619Z 19008KT M03/M05 A3028 RMK A01 T10321050  RH  088%=      5-min Rain = 0
KAD1 090620Z 19009KT M03/M05 A3028 RMK A01 T10331050  RH  088%=      5-min Rain = 0
KAD1 090621Z 19009KT M03/M05 A3028 RMK A01 T10341051  RH  088%=      5-min Rain = 0
KAD1 090622Z 19010KT M03/M05 A3028 RMK A01 T10341051  RH  089%=      5-min Rain = 0
KAD1 090623Z 19009KT M03/M05 A3028 RMK A01 T10341049  RH  090%=      5-min Rain = 0
KAD1 090624Z 19009KT M03/M05 A3028 RMK A01 T10331048  RH  090%=      5-min Rain = 0
KAD1 090625Z 19009KT M03/M05 A3028 RMK A01 T10321048  RH  089%=      5-min Rain = 0
KAD1 090626Z 19009KT M03/M05 A3028 RMK A01 T10321049  RH  088%=      5-min Rain = 0
KAD1 090627Z 19009KT M03/M05 A3028 RMK A01 T10331051  RH  087%=      5-min Rain = 0
KAD1 090628Z 19009KT M04/M05 A3028 RMK A01 T10351054  RH  087%=      5-min Rain = 0
KAD1 090629Z 19009KT M04/M06 A3028 RMK A01 T10371055  RH  087%=      5-min Rain = 0
KAD1 090630Z 19009KT M04/M06 A3028 RMK A01 T10371055  RH  088%=      5-min Rain = 0
KAD1 090631Z 19009KT M04/M06 A3028 RMK A01 T10381055  RH  088%=      5-min Rain = 0
KAD1 090632Z 19009KT M04/M06 A3028 RMK A01 T10381056  RH  088%=      5-min Rain = 0
KAD1 090633Z 19009KT M04/M06 A3028 RMK A01 T10401057  RH  088%=      5-min Rain = 0
KAD1 090634Z 19009KT M04/M06 A3028 RMK A01 T10411057  RH  089%=      5-min Rain = 0
KAD1 090635Z 19009KT M04/M06 A3028 RMK A01 T10411057  RH  089%=      5-min Rain = 0
KAD1 090636Z 19008KT M04/M06 A3028 RMK A01 T10411056  RH  090%=      5-min Rain = 0
KAD1 090637Z 19008KT M04/M06 A3028 RMK A01 T10411055  RH  090%=      5-min Rain = 0
KAD1 090638Z 19008KT M04/M05 A3028 RMK A01 T10401053  RH  091%=      5-min Rain = 0
KAD1 090639Z 19008KT M04/M05 A3028 RMK A01 T10411054  RH  090%=      5-min Rain = 0
KAD1 090640Z 19008KT M04/M06 A3028 RMK A01 T10421057  RH  090%=      5-min Rain = 0
KAD1 090641Z 19008KT M04/M06 A3028 RMK A01 T10431057  RH  090%=      5-min Rain = 0
KAD1 090642Z 19008KT M04/M05 A3027 RMK A01 T10421054  RH  091%=      5-min Rain = 0
KAD1 090643Z 19008KT M04/M05 A3027 RMK A01 T10411052  RH  092%=      5-min Rain = 0
KAD1 090644Z 20008KT M04/M05 A3027 RMK A01 T10401053  RH  091%=      5-min Rain = 0
KAD1 090645Z 20008KT M04/M05 A3027 RMK A01 T10391051  RH  092%=      5-min Rain = 0
KAD1 090646Z 19007KT M04/M05 A3027 RMK A01 T10371048  RH  093%=      5-min Rain = 0
KAD1 090647Z 19008KT M04/M05 A3027 RMK A01 T10361046  RH  093%=      5-min Rain = 0
KAD1 090648Z 19008KT M04/M05 A3027 RMK A01 T10361048  RH  092%=      5-min Rain = 0
KAD1 090649Z 19008KT M04/M05 A3027 RMK A01 T10381052  RH  090%=      5-min Rain = 0
KAD1 090650Z 19007KT M04/M05 A3027 RMK A01 T10381050  RH  091%=      5-min Rain = 0
KAD1 090651Z 19007KT M04/M04 A3027 RMK A01 T10351044  RH  093%=      5-min Rain = 0
KAD1 090652Z 19008KT M04/M05 A3027 RMK A01 T10351045  RH  093%=      5-min Rain = 0
KAD1 090653Z 19007KT M04/M05 A3027 RMK A01 T10361047  RH  092%=      5-min Rain = 0
KAD1 090654Z 19007KT M04/M05 A3027 RMK A01 T10381051  RH  091%=      5-min Rain = 0
KAD1 090655Z 19007KT M04/M05 A3027 RMK A01 T10391052  RH  091%=      5-min Rain = 0
KAD1 090656Z 19007KT M04/M05 A3027 RMK A01 T10391050  RH  092%=      5-min Rain = 0
KAD1 090657Z 19007KT M04/M05 A3027 RMK A01 T10381048  RH  093%=      5-min Rain = 0
KAD1 090658Z 19007KT M04/M05 A3027 RMK A01 T10381048  RH  093%=      5-min Rain = 0
KAD1 090659Z 19007KT M04/M05 A3027 RMK A01 T10391051  RH  092%=      5-min Rain = 0
KAD1 090700Z 19007KT M04/M05 A3027 RMK A01 T10411052  RH  092%=      5-min Rain = 0
KAD1 090701Z 19007KT M04/M05 A3027 RMK A01 T10421053  RH  092%=      5-min Rain = 0
KAD1 090702Z 19007KT M04/M05 A3027 RMK A01 T10421053  RH  092%=      5-min Rain = 0
KAD1 090703Z 19007KT M04/M05 A3027 RMK A01 T10421053  RH  092%=      5-min Rain = 0
KAD1 090704Z 19008KT M04/M05 A3027 RMK A01 T10421053  RH  092%=      5-min Rain = 0
KAD1 090705Z 18007KT M04/M05 A3027 RMK A01 T10421052  RH  093%=      5-min Rain = 0
KAD1 090706Z 18007KT M04/M05 A3027 RMK A01 T10411051  RH  093%=      5-min Rain = 0
KAD1 090707Z 18007KT M04/M05 A3027 RMK A01 T10411050  RH  093%=      5-min Rain = 0
KAD1 090708Z 19007KT M04/M05 A3027 RMK A01 T10401049  RH  093%=      5-min Rain = 0
KAD1 090709Z 19007KT M04/M05 A3027 RMK A01 T10401049  RH  093%=      5-min Rain = 0
KAD1 090710Z 19007KT M04/M05 A3027 RMK A01 T10401050  RH  093%=      5-min Rain = 0
KAD1 090711Z 19008KT M04/M05 A3027 RMK A01 T10411051  RH  092%=      5-min Rain = 0
KAD1 090712Z 19008KT M04/M05 A3027 RMK A01 T10421053  RH  092%=      5-min Rain = 0
KAD1 090713Z 19007KT M04/M05 A3027 RMK A01 T10431054  RH  092%=      5-min Rain = 0
KAD1 090714Z 19007KT M04/M05 A3027 RMK A01 T10421051  RH  093%=      5-min Rain = 0
KAD1 090715Z 19007KT M04/M05 A3027 RMK A01 T10411050  RH  093%=      5-min Rain = 0
KAD1 090716Z 19007KT M04/M05 A3027 RMK A01 T10401049  RH  094%=      5-min Rain = 0
KAD1 090717Z 19007KT M04/M05 A3027 RMK A01 T10391048  RH  094%=      5-min Rain = 0
KAD1 090718Z 19007KT M04/M05 A3027 RMK A01 T10401050  RH  093%=      5-min Rain = 0
KAD1 090719Z 19007KT M04/M05 A3027 RMK A01 T10411051  RH  093%=      5-min Rain = 0
KAD1 090720Z 19007KT M04/M05 A3027 RMK A01 T10411051  RH  093%=      5-min Rain = 0
KAD1 090721Z 19007KT M04/M05 A3027 RMK A01 T10411050  RH  093%=      5-min Rain = 0
KAD1 090722Z 19007KT M04/M05 A3027 RMK A01 T10391048  RH  094%=      5-min Rain = 0
KAD1 090723Z 19008KT M04/M05 A3027 RMK A01 T10391047  RH  094%=      5-min Rain = 0
KAD1 090724Z 19008KT M04/M05 A3028 RMK A01 T10391048  RH  094%=      5-min Rain = 0
KAD1 090725Z 19008KT M04/M05 A3028 RMK A01 T10411050  RH  093%=      5-min Rain = 0
KAD1 090726Z 19007KT M04/M05 A3028 RMK A01 T10391048  RH  094%=      5-min Rain = 0
KAD1 090727Z 20006KT M04/M04 A3028 RMK A01 T10351042  RH  095%=      5-min Rain = 0
KAD1 090728Z 20006KT M03/M04 A3028 RMK A01 T10331038  RH  096%=      5-min Rain = 0
KAD1 090729Z 20006KT M03/M04 A3028 RMK A01 T10331039  RH  096%=      5-min Rain = 0
KAD1 090730Z 20007KT M03/M04 A3028 RMK A01 T10331040  RH  095%=      5-min Rain = 0
KAD1 090731Z 20007KT M04/M04 A3028 RMK A01 T10351043  RH  094%=      5-min Rain = 0
KAD1 090732Z 20007KT M04/M05 A3028 RMK A01 T10371046  RH  094%=      5-min Rain = 0
KAD1 090733Z 20007KT M04/M05 A3028 RMK A01 T10381047  RH  094%=      5-min Rain = 0
KAD1 090734Z 19007KT M04/M05 A3028 RMK A01 T10381046  RH  094%=      5-min Rain = 0
KAD1 090735Z 19006KT M04/M04 A3028 RMK A01 T10351042  RH  095%=      5-min Rain = 0
KAD1 090736Z 20007KT M03/M04 A3028 RMK A01 T10331039  RH  096%=      5-min Rain = 0
KAD1 090737Z 19007KT M03/M04 A3028 RMK A01 T10331039  RH  096%=      5-min Rain = 0
KAD1 090738Z 20007KT M03/M04 A3028 RMK A01 T10331039  RH  095%=      5-min Rain = 0
KAD1 090739Z 20007KT M03/M04 A3028 RMK A01 T10331040  RH  095%=      5-min Rain = 0
KAD1 090740Z 20006KT M03/M04 A3028 RMK A01 T10331041  RH  095%=      5-min Rain = 0
KAD1 090741Z 20006KT M03/M04 A3028 RMK A01 T10321039  RH  095%=      5-min Rain = 0
KAD1 090742Z 20006KT M03/M04 A3028 RMK A01 T10311038  RH  095%=      5-min Rain = 0
KAD1 090743Z 20006KT M03/M04 A3028 RMK A01 T10301037  RH  095%=      5-min Rain = 0
KAD1 090744Z 20006KT M03/M04 A3028 RMK A01 T10301038  RH  094%=      5-min Rain = 0
KAD1 090745Z 20006KT M03/M04 A3028 RMK A01 T10311039  RH  094%=      5-min Rain = 0
KAD1 090746Z 20006KT M03/M04 A3028 RMK A01 T10301037  RH  094%=      5-min Rain = 0
KAD1 090747Z 20006KT M03/M03 A3028 RMK A01 T10271034  RH  095%=      5-min Rain = 0
KAD1 090748Z 20006KT M03/M03 A3028 RMK A01 T10271034  RH  095%=      5-min Rain = 0
KAD1 090749Z 20006KT M03/M04 A3028 RMK A01 T10271035  RH  094%=      5-min Rain = 0
KAD1 090750Z 20006KT M03/M04 A3028 RMK A01 T10271036  RH  094%=      5-min Rain = 0
KAD1 090751Z 20006KT M03/M04 A3028 RMK A01 T10281037  RH  094%=      5-min Rain = 0
KAD1 090752Z 20006KT M03/M04 A3028 RMK A01 T10281037  RH  094%=      5-min Rain = 0
KAD1 090753Z 20006KT M03/M04 A3028 RMK A01 T10281037  RH  094%=      5-min Rain = 0
KAD1 090754Z 20006KT M03/M04 A3028 RMK A01 T10281037  RH  094%=      5-min Rain = 0
KAD1 090755Z 20006KT M03/M04 A3028 RMK A01 T10281037  RH  094%=      5-min Rain = 0
KAD1 090756Z 20006KT M03/M04 A3028 RMK A01 T10281037  RH  094%=      5-min Rain = 0
KAD1 090757Z 20006KT M03/M04 A3028 RMK A01 T10281037  RH  094%=      5-min Rain = 0
KAD1 090758Z 20006KT M03/M04 A3028 RMK A01 T10271035  RH  094%=      5-min Rain = 0
KAD1 090759Z 20006KT M03/M03 A3028 RMK A01 T10251032  RH  095%=      5-min Rain = 0
KAD1 090800Z 20006KT M02/M03 A3028 RMK A01 T10221030  RH  095%=      5-min Rain = 0
KAD1 090801Z 20007KT M02/M03 A3028 RMK A01 T10221029  RH  095%=      5-min Rain = 0
KAD1 090802Z 20007KT M02/M03 A3028 RMK A01 T10221030  RH  094%=      5-min Rain = 0
KAD1 090803Z 20006KT M02/M03 A3028 RMK A01 T10211030  RH  094%=      5-min Rain = 0
KAD1 090804Z 20006KT M02/M03 A3028 RMK A01 T10221031  RH  093%=      5-min Rain = 0
KAD1 090805Z 20006KT M02/M03 A3028 RMK A01 T10221032  RH  093%=      5-min Rain = 0
KAD1 090806Z 20006KT M02/M03 A3028 RMK A01 T10231033  RH  093%=      5-min Rain = 0
KAD1 090807Z 21006KT M02/M03 A3028 RMK A01 T10231033  RH  093%=      5-min Rain = 0
KAD1 090808Z 21006KT M02/M03 A3028 RMK A01 T10241034  RH  093%=      5-min Rain = 0
KAD1 090809Z 21005KT M03/M04 A3028 RMK A01 T10251035  RH  093%=      5-min Rain = 0
KAD1 090810Z 21005KT M03/M04 A3028 RMK A01 T10261037  RH  093%=      5-min Rain = 0
KAD1 090811Z 21005KT M03/M04 A3028 RMK A01 T10261036  RH  093%=      5-min Rain = 0
KAD1 090812Z 21005KT M03/M04 A3028 RMK A01 T10261035  RH  093%=      5-min Rain = 0
KAD1 090813Z 21005KT M03/M04 A3028 RMK A01 T10261035  RH  094%=      5-min Rain = 0
KAD1 090814Z 21005KT M03/M04 A3028 RMK A01 T10261035  RH  093%=      5-min Rain = 0
KAD1 090815Z 21005KT M03/M04 A3028 RMK A01 T10261035  RH  094%=      5-min Rain = 0
KAD1 090816Z 22005KT M03/M04 A3028 RMK A01 T10271035  RH  094%=      5-min Rain = 0
KAD1 090817Z 21005KT M03/M04 A3028 RMK A01 T10271035  RH  094%=      5-min Rain = 0
KAD1 090818Z 21005KT M03/M04 A3028 RMK A01 T10271035  RH  094%=      5-min Rain = 0
KAD1 090819Z 22006KT M03/M04 A3029 RMK A01 T10261035  RH  094%=      5-min Rain = 0
KAD1 090820Z 22005KT M03/M03 A3029 RMK A01 T10261034  RH  094%=      5-min Rain = 0
KAD1 090821Z 21006KT M03/M03 A3028 RMK A01 T10251033  RH  094%=      5-min Rain = 0
KAD1 090822Z 22006KT M02/M03 A3028 RMK A01 T10241032  RH  094%=      5-min Rain = 0
KAD1 090823Z 22006KT M02/M03 A3028 RMK A01 T10231031  RH  095%=      5-min Rain = 0
KAD1 090824Z 22006KT M02/M03 A3028 RMK A01 T10221030  RH  095%=      5-min Rain = 0
KAD1 090825Z 22005KT M02/M03 A3028 RMK A01 T10221029  RH  095%=      5-min Rain = 0
KAD1 090826Z 22005KT M02/M03 A3028 RMK A01 T10221030  RH  094%=      5-min Rain = 0
KAD1 090827Z 21005KT M02/M03 A3028 RMK A01 T10211030  RH  094%=      5-min Rain = 0
KAD1 090828Z 22005KT M02/M03 A3028 RMK A01 T10211030  RH  094%=      5-min Rain = 0
KAD1 090829Z 22005KT M02/M03 A3028 RMK A01 T10211030  RH  094%=      5-min Rain = 0
KAD1 090830Z 22005KT M02/M03 A3028 RMK A01 T10211030  RH  094%=      5-min Rain = 0
KAD1 090831Z 22005KT M02/M03 A3028 RMK A01 T10211030  RH  093%=      5-min Rain = 0
KAD1 090832Z 25004KT M02/M03 A3028 RMK A01 T10211031  RH  093%=      5-min Rain = 0
KAD1 090833Z 29004KT M02/M03 A3028 RMK A01 T10211031  RH  093%=      5-min Rain = 0
KAD1 090834Z 27005KT M02/M03 A3028 RMK A01 T10211030  RH  093%=      5-min Rain = 0
KAD1 090835Z 26005KT M02/M03 A3028 RMK A01 T10201029  RH  094%=      5-min Rain = 0
KAD1 090836Z 27004KT M02/M03 A3029 RMK A01 T10191028  RH  093%=      5-min Rain = 0
KAD1 090837Z 29004KT M02/M03 A3029 RMK A01 T10181028  RH  093%=      5-min Rain = 0
KAD1 090838Z 29003KT M02/M03 A3029 RMK A01 T10181028  RH  093%=      5-min Rain = 0
KAD1 090839Z 30004KT M02/M03 A3029 RMK A01 T10181029  RH  093%=      5-min Rain = 0
KAD1 090840Z 30004KT M02/M03 A3029 RMK A01 T10191031  RH  091%=      5-min Rain = 0
KAD1 090841Z 31004KT M02/M04 A3029 RMK A01 T10201035  RH  089%=      5-min Rain = 0
KAD1 090842Z 31004KT M02/M04 A3029 RMK A01 T10211038  RH  088%=      5-min Rain = 0
KAD1 090843Z 30003KT M02/M04 A3029 RMK A01 T10211040  RH  087%=      5-min Rain = 0
KAD1 090844Z 30003KT M02/M04 A3029 RMK A01 T10211041  RH  086%=      5-min Rain = 0
KAD1 090845Z 30003KT M02/M04 A3029 RMK A01 T10211041  RH  086%=      5-min Rain = 0
KAD1 090846Z 30003KT M02/M04 A3029 RMK A01 T10211042  RH  086%=      5-min Rain = 0
KAD1 090847Z 30003KT M02/M04 A3029 RMK A01 T10221042  RH  086%=      5-min Rain = 0
KAD1 090848Z 31003KT M02/M04 A3029 RMK A01 T10221042  RH  086%=      5-min Rain = 0
KAD1 090849Z 32003KT M02/M04 A3029 RMK A01 T10221042  RH  086%=      5-min Rain = 0
KAD1 090850Z 33003KT M02/M04 A3029 RMK A01 T10221042  RH  086%=      5-min Rain = 0
KAD1 090851Z 33004KT M02/M04 A3029 RMK A01 T10221042  RH  086%=      5-min Rain = 0
KAD1 090852Z 33004KT M02/M04 A3029 RMK A01 T10211042  RH  086%=      5-min Rain = 0
KAD1 090853Z 33004KT M02/M04 A3029 RMK A01 T10211042  RH  085%=      5-min Rain = 0
KAD1 090854Z 33004KT M02/M04 A3029 RMK A01 T10211043  RH  085%=      5-min Rain = 0
KAD1 090855Z 33003KT M02/M04 A3029 RMK A01 T10211043  RH  085%=      5-min Rain = 0
KAD1 090856Z 33003KT M02/M04 A3029 RMK A01 T10211043  RH  085%=      5-min Rain = 0
KAD1 090857Z 33003KT M02/M04 A3029 RMK A01 T10211043  RH  085%=      5-min Rain = 0
KAD1 090858Z 34003KT M02/M04 A3029 RMK A01 T10221044  RH  085%=      5-min Rain = 0
KAD1 090859Z 34003KT M02/M04 A3029 RMK A01 T10211044  RH  085%=      5-min Rain = 0
KAD1 090900Z 33003KT M02/M04 A3029 RMK A01 T10221044  RH  084%=      5-min Rain = 0
KAD1 090901Z 34003KT M02/M05 A3029 RMK A01 T10221045  RH  084%=      5-min Rain = 0
KAD1 090902Z 35003KT M02/M05 A3029 RMK A01 T10221045  RH  084%=      5-min Rain = 0
KAD1 090903Z 35003KT M02/M05 A3029 RMK A01 T10221046  RH  084%=      5-min Rain = 0
KAD1 090904Z 35003KT M02/M05 A3029 RMK A01 T10221046  RH  084%=      5-min Rain = 0
KAD1 090905Z 35002KT M02/M05 A3029 RMK A01 T10211045  RH  084%=      5-min Rain = 0
KAD1 090906Z 35002KT M02/M04 A3029 RMK A01 T10211044  RH  084%=      5-min Rain = 0
KAD1 090907Z 35002KT M02/M04 A3029 RMK A01 T10211044  RH  084%=      5-min Rain = 0
KAD1 090908Z 34003KT M02/M04 A3029 RMK A01 T10211044  RH  084%=      5-min Rain = 0
KAD1 090909Z 35003KT M02/M04 A3029 RMK A01 T10201044  RH  084%=      5-min Rain = 0
KAD1 090910Z 35003KT M02/M04 A3029 RMK A01 T10211044  RH  084%=      5-min Rain = 0
KAD1 090911Z 35003KT M02/M04 A3029 RMK A01 T10211044  RH  084%=      5-min Rain = 0
KAD1 090912Z 35003KT M02/M04 A3029 RMK A01 T10211044  RH  084%=      5-min Rain = 0
KAD1 090913Z 34003KT M02/M04 A3029 RMK A01 T10201044  RH  084%=      5-min Rain = 0
KAD1 090914Z 34003KT M02/M04 A3029 RMK A01 T10201044  RH  083%=      5-min Rain = 0
KAD1 090915Z 34003KT M02/M04 A3029 RMK A01 T10191044  RH  083%=      5-min Rain = 0
KAD1 090916Z 34003KT M02/M04 A3029 RMK A01 T10191044  RH  083%=      5-min Rain = 0
KAD1 090917Z 34003KT M02/M04 A3029 RMK A01 T10181044  RH  083%=      5-min Rain = 0
KAD1 090918Z 34003KT M02/M04 A3029 RMK A01 T10181044  RH  083%=      5-min Rain = 0
KAD1 090919Z 34003KT M02/M04 A3029 RMK A01 T10181044  RH  082%=      5-min Rain = 0
KAD1 090920Z 34003KT M02/M05 A3029 RMK A01 T10181045  RH  082%=      5-min Rain = 0
KAD1 090921Z 34003KT M02/M05 A3029 RMK A01 T10191045  RH  082%=      5-min Rain = 0
KAD1 090922Z 33003KT M02/M05 A3029 RMK A01 T10211047  RH  083%=      5-min Rain = 0
KAD1 090923Z 33004KT M02/M05 A3029 RMK A01 T10221046  RH  084%=      5-min Rain = 0
KAD1 090924Z 32004KT M02/M05 A3029 RMK A01 T10221045  RH  084%=      5-min Rain = 0
KAD1 090925Z 32004KT M02/M05 A3029 RMK A01 T10221045  RH  084%=      5-min Rain = 0
KAD1 090926Z 32004KT M02/M05 A3029 RMK A01 T10211045  RH  084%=      5-min Rain = 0
KAD1 090927Z 32004KT M02/M05 A3029 RMK A01 T10211045  RH  084%=      5-min Rain = 0
KAD1 090928Z 32004KT M02/M05 A3029 RMK A01 T10201045  RH  083%=      5-min Rain = 0
KAD1 090929Z 32004KT M02/M04 A3029 RMK A01 T10201044  RH  083%=      5-min Rain = 0
KAD1 090930Z 32004KT M02/M05 A3029 RMK A01 T10191045  RH  083%=      5-min Rain = 0
KAD1 090931Z 32004KT M02/M05 A3029 RMK A01 T10191045  RH  082%=      5-min Rain = 0
KAD1 090932Z 32004KT M02/M05 A3029 RMK A01 T10191046  RH  082%=      5-min Rain = 0
KAD1 090933Z 32004KT M02/M05 A3029 RMK A01 T10201046  RH  082%=      5-min Rain = 0
KAD1 090934Z 32004KT M02/M05 A3029 RMK A01 T10201047  RH  082%=      5-min Rain = 0
KAD1 090935Z 32004KT M02/M05 A3029 RMK A01 T10201047  RH  082%=      5-min Rain = 0
KAD1 090936Z 32004KT M02/M05 A3029 RMK A01 T10211047  RH  082%=      5-min Rain = 0
KAD1 090937Z 32003KT M02/M05 A3029 RMK A01 T10211047  RH  082%=      5-min Rain = 0
KAD1 090938Z 32003KT M02/M05 A3029 RMK A01 T10211047  RH  082%=      5-min Rain = 0
KAD1 090939Z 32003KT M02/M05 A3029 RMK A01 T10211047  RH  082%=      5-min Rain = 0
KAD1 090940Z 31003KT M02/M05 A3029 RMK A01 T10221047  RH  083%=      5-min Rain = 0
KAD1 090941Z 31003KT M02/M05 A3029 RMK A01 T10211047  RH  083%=      5-min Rain = 0
KAD1 090942Z 31003KT M02/M05 A3029 RMK A01 T10211047  RH  083%=      5-min Rain = 0
KAD1 090943Z 32003KT M02/M05 A3029 RMK A01 T10211047  RH  083%=      5-min Rain = 0
KAD1 090944Z 32003KT M02/M05 A3029 RMK A01 T10211046  RH  083%=      5-min Rain = 0
KAD1 090945Z 32003KT M02/M05 A3029 RMK A01 T10201045  RH  082%=      5-min Rain = 0
KAD1 090946Z 32003KT M02/M05 A3029 RMK A01 T10181045  RH  082%=      5-min Rain = 0
KAD1 090947Z 32003KT M02/M05 A3029 RMK A01 T10161045  RH  081%=      5-min Rain = 0
KAD1 090948Z 32003KT M01/M04 A3029 RMK A01 T10141044  RH  080%=      5-min Rain = 0
KAD1 090949Z 32004KT M01/M05 A3029 RMK A01 T10131045  RH  079%=      5-min Rain = 0
KAD1 090950Z 32004KT M01/M05 A3029 RMK A01 T10131045  RH  078%=      5-min Rain = 0
KAD1 090951Z 32004KT M01/M05 A3029 RMK A01 T10131047  RH  078%=      5-min Rain = 0
KAD1 090952Z 32004KT M02/M05 A3029 RMK A01 T10151047  RH  078%=      5-min Rain = 0
KAD1 090953Z 32003KT M02/M05 A3029 RMK A01 T10161048  RH  079%=      5-min Rain = 0
KAD1 090954Z 32003KT M02/M05 A3029 RMK A01 T10171050  RH  078%=      5-min Rain = 0
KAD1 090955Z 31003KT M02/M05 A3029 RMK A01 T10201051  RH  079%=      5-min Rain = 0
KAD1 090956Z 31003KT M02/M05 A3029 RMK A01 T10201048  RH  081%=      5-min Rain = 0
KAD1 090957Z 31003KT M02/M05 A3029 RMK A01 T10191047  RH  081%=      5-min Rain = 0
KAD1 090958Z 31003KT M02/M05 A3029 RMK A01 T10201050  RH  080%=      5-min Rain = 0
KAD1 090959Z 32003KT M02/M05 A3029 RMK A01 T10221051  RH  080%=      5-min Rain = 0
KAD1 091000Z 32002KT M02/M05 A3029 RMK A01 T10221049  RH  082%=      5-min Rain = 0
KAD1 091001Z 33003KT M02/M05 A3029 RMK A01 T10211047  RH  082%=      5-min Rain = 0
KAD1 091002Z 33003KT M02/M05 A3029 RMK A01 T10201047  RH  082%=      5-min Rain = 0
KAD1 091003Z 33003KT M02/M05 A3029 RMK A01 T10191047  RH  081%=      5-min Rain = 0
KAD1 091004Z 33003KT M02/M05 A3029 RMK A01 T10181047  RH  081%=      5-min Rain = 0
KAD1 091005Z 33003KT M02/M05 A3029 RMK A01 T10181048  RH  080%=      5-min Rain = 0
KAD1 091006Z 32003KT M02/M05 A3029 RMK A01 T10181048  RH  080%=      5-min Rain = 0
KAD1 091007Z 32003KT M02/M05 A3028 RMK A01 T10181048  RH  080%=      5-min Rain = 0
KAD1 091008Z 32003KT M02/M05 A3028 RMK A01 T10181048  RH  080%=      5-min Rain = 0
KAD1 091009Z 33002KT M02/M05 A3028 RMK A01 T10181049  RH  079%=      5-min Rain = 0
KAD1 091010Z 35002KT M02/M05 A3028 RMK A01 T10181049  RH  079%=      5-min Rain = 0
KAD1 091011Z 35002KT M02/M05 A3028 RMK A01 T10181050  RH  079%=      5-min Rain = 0
KAD1 091012Z 35002KT M02/M05 A3028 RMK A01 T10181050  RH  079%=      5-min Rain = 0
KAD1 091013Z 36002KT M02/M05 A3028 RMK A01 T10191050  RH  079%=      5-min Rain = 0
KAD1 091014Z 01002KT M02/M05 A3028 RMK A01 T10191050  RH  079%=      5-min Rain = 0
KAD1 091015Z 01003KT M02/M05 A3028 RMK A01 T10191051  RH  079%=      5-min Rain = 0
KAD1 091016Z 02003KT M02/M05 A3028 RMK A01 T10191051  RH  079%=      5-min Rain = 0
KAD1 091017Z 02003KT M02/M05 A3028 RMK A01 T10201051  RH  079%=      5-min Rain = 0
KAD1 091018Z 01003KT M02/M05 A3028 RMK A01 T10201052  RH  079%=      5-min Rain = 0
KAD1 091019Z 01003KT M02/M05 A3028 RMK A01 T10201051  RH  080%=      5-min Rain = 0
KAD1 091020Z 00003KT M02/M05 A3028 RMK A01 T10201050  RH  080%=      5-min Rain = 0
KAD1 091021Z 36003KT M02/M05 A3028 RMK A01 T10201050  RH  080%=      5-min Rain = 0
KAD1 091022Z 36003KT M02/M05 A3028 RMK A01 T10191050  RH  080%=      5-min Rain = 0
KAD1 091023Z 35003KT M02/M05 A3028 RMK A01 T10191051  RH  079%=      5-min Rain = 0
KAD1 091024Z 35003KT M02/M05 A3028 RMK A01 T10191051  RH  079%=      5-min Rain = 0
KAD1 091025Z 36004KT M02/M05 A3028 RMK A01 T10181051  RH  079%=      5-min Rain = 0
KAD1 091026Z 00004KT M02/M05 A3028 RMK A01 T10181051  RH  078%=      5-min Rain = 0
KAD1 091027Z 00004KT M02/M05 A3028 RMK A01 T10181052  RH  078%=      5-min Rain = 0
KAD1 091028Z 36004KT M02/M05 A3028 RMK A01 T10181052  RH  078%=      5-min Rain = 0
KAD1 091029Z 36004KT M02/M05 A3028 RMK A01 T10171052  RH  077%=      5-min Rain = 0
KAD1 091030Z 36004KT M02/M05 A3028 RMK A01 T10161051  RH  077%=      5-min Rain = 0
KAD1 091031Z 35003KT M02/M05 A3028 RMK A01 T10151051  RH  076%=      5-min Rain = 0
KAD1 091032Z 35003KT M01/M05 A3028 RMK A01 T10141051  RH  076%=      5-min Rain = 0
KAD1 091033Z 35003KT M01/M05 A3028 RMK A01 T10131051  RH  076%=      5-min Rain = 0
KAD1 091034Z 35003KT M01/M05 A3028 RMK A01 T10131051  RH  075%=      5-min Rain = 0
KAD1 091035Z 35003KT M01/M05 A3028 RMK A01 T10131051  RH  075%=      5-min Rain = 0
KAD1 091036Z 35003KT M01/M05 A3028 RMK A01 T10131051  RH  075%=      5-min Rain = 0
KAD1 091037Z 35003KT M01/M05 A3028 RMK A01 T10121050  RH  075%=      5-min Rain = 0
KAD1 091038Z 35003KT M01/M05 A3028 RMK A01 T10121050  RH  075%=      5-min Rain = 0
KAD1 091039Z 35003KT M01/M05 A3028 RMK A01 T10121050  RH  075%=      5-min Rain = 0
KAD1 091040Z 36004KT M01/M05 A3028 RMK A01 T10121050  RH  075%=      5-min Rain = 0
KAD1 091041Z 00004KT M01/M05 A3028 RMK A01 T10121050  RH  075%=      5-min Rain = 0
KAD1 091042Z 00004KT M01/M05 A3028 RMK A01 T10111050  RH  075%=      5-min Rain = 0
KAD1 091043Z 36004KT M01/M05 A3028 RMK A01 T10111050  RH  075%=      5-min Rain = 0
KAD1 091044Z 00004KT M01/M05 A3028 RMK A01 T10111050  RH  074%=      5-min Rain = 0
KAD1 091045Z 00004KT M01/M05 A3028 RMK A01 T10111051  RH  074%=      5-min Rain = 0
KAD1 091046Z 36005KT M01/M05 A3028 RMK A01 T10121051  RH  074%=      5-min Rain = 0
KAD1 091047Z 00005KT M01/M05 A3028 RMK A01 T10121051  RH  075%=      5-min Rain = 0
KAD1 091048Z 36004KT M01/M05 A3028 RMK A01 T10121051  RH  075%=      5-min Rain = 0
KAD1 091049Z 35005KT M01/M05 A3028 RMK A01 T10121051  RH  075%=      5-min Rain = 0
KAD1 091050Z 35004KT M01/M05 A3028 RMK A01 T10111050  RH  075%=      5-min Rain = 0
KAD1 091051Z 35004KT M01/M05 A3028 RMK A01 T10111050  RH  075%=      5-min Rain = 0
KAD1 091052Z 35004KT M01/M05 A3028 RMK A01 T10111050  RH  075%=      5-min Rain = 0
KAD1 091053Z 35004KT M01/M05 A3028 RMK A01 T10121051  RH  075%=      5-min Rain = 0
KAD1 091054Z 35004KT M01/M05 A3028 RMK A01 T10131051  RH  075%=      5-min Rain = 0
KAD1 091055Z 35004KT M01/M05 A3028 RMK A01 T10131050  RH  076%=      5-min Rain = 0
KAD1 091056Z 35003KT M01/M05 A3028 RMK A01 T10131050  RH  076%=      5-min Rain = 0
KAD1 091057Z 35004KT M01/M05 A3028 RMK A01 T10131050  RH  076%=      5-min Rain = 0
KAD1 091058Z 35004KT M01/M05 A3028 RMK A01 T10121050  RH  076%=      5-min Rain = 0
KAD1 091059Z 35004KT M01/M05 A3028 RMK A01 T10131050  RH  076%=      5-min Rain = 0
KAD1 091100Z 35004KT M01/M05 A3028 RMK A01 T10131051  RH  076%=      5-min Rain = 0
KAD1 091101Z 36004KT M01/M05 A3028 RMK A01 T10131050  RH  076%=      5-min Rain = 0
KAD1 091102Z 00004KT M01/M05 A3028 RMK A01 T10131050  RH  076%=      5-min Rain = 0
KAD1 091103Z 00004KT M01/M05 A3028 RMK A01 T10131049  RH  076%=      5-min Rain = 0
KAD1 091104Z 36004KT M01/M05 A3028 RMK A01 T10131049  RH  076%=      5-min Rain = 0
KAD1 091105Z 35004KT M01/M05 A3028 RMK A01 T10131050  RH  076%=      5-min Rain = 0
KAD1 091106Z 35004KT M01/M05 A3028 RMK A01 T10131050  RH  076%=      5-min Rain = 0
KAD1 091107Z 35004KT M01/M05 A3028 RMK A01 T10131050  RH  076%=      5-min Rain = 0
KAD1 091108Z 35004KT M01/M05 A3028 RMK A01 T10131050  RH  076%=      5-min Rain = 0
KAD1 091109Z 35004KT M01/M05 A3028 RMK A01 T10141050  RH  076%=      5-min Rain = 0
KAD1 091110Z 35004KT M01/M05 A3028 RMK A01 T10141050  RH  076%=      5-min Rain = 0
KAD1 091111Z 35004KT M01/M05 A3028 RMK A01 T10141050  RH  077%=      5-min Rain = 0
KAD1 091112Z 36004KT M01/M05 A3028 RMK A01 T10141049  RH  077%=      5-min Rain = 0
KAD1 091113Z 36003KT M01/M05 A3028 RMK A01 T10141049  RH  077%=      5-min Rain = 0
KAD1 091114Z 35003KT M01/M05 A3028 RMK A01 T10141048  RH  077%=      5-min Rain = 0
KAD1 091115Z 35003KT M01/M05 A3028 RMK A01 T10131048  RH  077%=      5-min Rain = 0
KAD1 091116Z 35003KT M01/M05 A3028 RMK A01 T10121048  RH  077%=      5-min Rain = 0
KAD1 091117Z 35003KT M01/M05 A3028 RMK A01 T10121048  RH  077%=      5-min Rain = 0
KAD1 091118Z 35003KT M01/M05 A3028 RMK A01 T10121048  RH  076%=      5-min Rain = 0
KAD1 091119Z 35003KT M01/M05 A3028 RMK A01 T10111048  RH  076%=      5-min Rain = 0
KAD1 091120Z 35003KT M01/M05 A3028 RMK A01 T10111048  RH  076%=      5-min Rain = 0
KAD1 091121Z 35004KT M01/M05 A3028 RMK A01 T10111047  RH  076%=      5-min Rain = 0
KAD1 091122Z 34004KT M01/M05 A3028 RMK A01 T10111047  RH  076%=      5-min Rain = 0
KAD1 091123Z 34004KT M01/M05 A3028 RMK A01 T10111049  RH  076%=      5-min Rain = 0
KAD1 091124Z 34005KT M01/M05 A3028 RMK A01 T10131050  RH  076%=      5-min Rain = 0
KAD1 091125Z 33004KT M02/M05 A3028 RMK A01 T10151051  RH  076%=      5-min Rain = 0
KAD1 091126Z 33004KT M02/M05 A3028 RMK A01 T10161050  RH  078%=      5-min Rain = 0
KAD1 091127Z 33004KT M02/M05 A3028 RMK A01 T10171048  RH  079%=      5-min Rain = 0
KAD1 091128Z 32004KT M02/M05 A3028 RMK A01 T10171047  RH  080%=      5-min Rain = 0
KAD1 091129Z 32004KT M02/M05 A3028 RMK A01 T10171047  RH  080%=      5-min Rain = 0
KAD1 091130Z 32004KT M02/M05 A3028 RMK A01 T10171049  RH  079%=      5-min Rain = 0
KAD1 091131Z 32004KT M02/M05 A3028 RMK A01 T10181051  RH  079%=      5-min Rain = 0
KAD1 091132Z 31003KT M02/M05 A3028 RMK A01 T10191051  RH  079%=      5-min Rain = 0
KAD1 091133Z 31003KT M02/M05 A3028 RMK A01 T10191050  RH  079%=      5-min Rain = 0
KAD1 091134Z 31003KT M02/M05 A3028 RMK A01 T10201051  RH  079%=      5-min Rain = 0
KAD1 091135Z 31003KT M02/M05 A3028 RMK A01 T10201051  RH  079%=      5-min Rain = 0
KAD1 091136Z 31003KT M02/M05 A3028 RMK A01 T10211052  RH  079%=      5-min Rain = 0
KAD1 091137Z 31003KT M02/M05 A3028 RMK A01 T10221052  RH  080%=      5-min Rain = 0
KAD1 091138Z 31003KT M02/M05 A3028 RMK A01 T10221052  RH  080%=      5-min Rain = 0
KAD1 091139Z 31003KT M02/M05 A3028 RMK A01 T10231053  RH  080%=      5-min Rain = 0
KAD1 091140Z 31003KT M02/M05 A3028 RMK A01 T10241053  RH  081%=      5-min Rain = 0
KAD1 091141Z 31002KT M03/M05 A3028 RMK A01 T10251054  RH  081%=      5-min Rain = 0
KAD1 091142Z 31002KT M03/M05 A3028 RMK A01 T10261054  RH  081%=      5-min Rain = 0
KAD1 091143Z 31003KT M03/M05 A3028 RMK A01 T10261053  RH  082%=      5-min Rain = 0
KAD1 091144Z 31003KT M03/M05 A3028 RMK A01 T10261052  RH  082%=      5-min Rain = 0
KAD1 091145Z 31004KT M03/M05 A3028 RMK A01 T10261052  RH  082%=      5-min Rain = 0
KAD1 091146Z 31004KT M03/M05 A3029 RMK A01 T10261053  RH  082%=      5-min Rain = 0
KAD1 091147Z 31004KT M03/M05 A3029 RMK A01 T10271054  RH  082%=      5-min Rain = 0
KAD1 091148Z 30005KT M03/M06 A3029 RMK A01 T10281056  RH  081%=      5-min Rain = 0
KAD1 091149Z 30005KT M03/M06 A3029 RMK A01 T10301058  RH  081%=      5-min Rain = 0
KAD1 091150Z 30005KT M03/M06 A3029 RMK A01 T10311057  RH  082%=      5-min Rain = 0
KAD1 091151Z 30005KT M03/M06 A3029 RMK A01 T10311057  RH  082%=      5-min Rain = 0
KAD1 091152Z 30005KT M03/M06 A3029 RMK A01 T10301055  RH  083%=      5-min Rain = 0
KAD1 091153Z 30006KT M03/M05 A3029 RMK A01 T10291054  RH  083%=      5-min Rain = 0
KAD1 091154Z 30006KT M03/M05 A3029 RMK A01 T10281054  RH  083%=      5-min Rain = 0
KAD1 091155Z 29006KT M03/M06 A3029 RMK A01 T10291055  RH  082%=      5-min Rain = 0
KAD1 091156Z 29006KT M03/M06 A3029 RMK A01 T10301056  RH  082%=      5-min Rain = 0
KAD1 091157Z 29006KT M03/M06 A3029 RMK A01 T10311056  RH  083%=      5-min Rain = 0
KAD1 091158Z 28005KT M03/M06 A3029 RMK A01 T10321056  RH  083%=      5-min Rain = 0
KAD1 091159Z 28005KT M03/M06 A3029 RMK A01 T10331056  RH  084%=      5-min Rain = 0
KAD1 091200Z 27005KT M03/M06 A3029 RMK A01 T10341057  RH  084%=      5-min Rain = 0
KAD1 091201Z 26006KT M04/M06 A3029 RMK A01 T10361059  RH  084%=      5-min Rain = 0
KAD1 091202Z 26007KT M04/M06 A3029 RMK A01 T10391061  RH  085%=      5-min Rain = 0
KAD1 091203Z 26006KT M04/M06 A3029 RMK A01 T10421063  RH  085%=      5-min Rain = 0
KAD1 091204Z 25007KT M04/M07 A3029 RMK A01 T10441065  RH  086%=      5-min Rain = 0
KAD1 091205Z 26006KT M05/M07 A3029 RMK A01 T10461065  RH  087%=      5-min Rain = 0
KAD1 091206Z 26007KT M05/M07 A3029 RMK A01 T10481065  RH  088%=      5-min Rain = 0
KAD1 091207Z 26007KT M05/M07 A3029 RMK A01 T10501066  RH  088%=      5-min Rain = 0
KAD1 091208Z 25007KT M05/M07 A3029 RMK A01 T10511067  RH  089%=      5-min Rain = 0
KAD1 091209Z 25008KT M05/M07 A3029 RMK A01 T10521068  RH  089%=      5-min Rain = 0
KAD1 091210Z 26008KT M05/M07 A303 RMK A01 T10541068  RH  090%=      5-min Rain = 0
KAD1 091211Z 26008KT M05/M07 A303 RMK A01 T10541068  RH  090%=      5-min Rain = 0
KAD1 091212Z 27008KT M06/M07 A303 RMK A01 T10551067  RH  091%=      5-min Rain = 0
KAD1 091213Z 26009KT M06/M07 A303 RMK A01 T10551067  RH  092%=      5-min Rain = 0
KAD1 091214Z 26009KT M06/M07 A303 RMK A01 T10551066  RH  092%=      5-min Rain = 0
KAD1 091215Z 26008KT M06/M07 A303 RMK A01 T10551066  RH  092%=      5-min Rain = 0
KAD1 091216Z 26008KT M06/M07 A303 RMK A01 T10551066  RH  092%=      5-min Rain = 0
KAD1 091217Z 26008KT M06/M07 A303 RMK A01 T10551066  RH  092%=      5-min Rain = 0
KAD1 091218Z 26008KT M06/M07 A303 RMK A01 T10551066  RH  092%=      5-min Rain = 0
KAD1 091219Z 26008KT M06/M07 A303 RMK A01 T10561067  RH  092%=      5-min Rain = 0
KAD1 091220Z 26008KT M06/M07 A303 RMK A01 T10561067  RH  092%=      5-min Rain = 0
KAD1 091221Z 26008KT M06/M07 A303 RMK A01 T10561067  RH  092%=      5-min Rain = 0
KAD1 091222Z 26008KT M06/M07 A303 RMK A01 T10561067  RH  092%=      5-min Rain = 0
KAD1 091223Z 26009KT M06/M07 A303 RMK A01 T10561066  RH  093%=      5-min Rain = 0
KAD1 091224Z 26009KT M06/M07 A303 RMK A01 T10561065  RH  093%=      5-min Rain = 0
KAD1 091225Z 26008KT M06/M07 A303 RMK A01 T10561065  RH  093%=      5-min Rain = 0
KAD1 091226Z 26008KT M06/M07 A303 RMK A01 T10551065  RH  093%=      5-min Rain = 0
KAD1 091227Z 26007KT M06/M07 A303 RMK A01 T10551065  RH  093%=      5-min Rain = 0
KAD1 091228Z 26008KT M06/M07 A303 RMK A01 T10551065  RH  093%=      5-min Rain = 0
KAD1 091229Z 26007KT M06/M07 A303 RMK A01 T10561066  RH  093%=      5-min Rain = 0
KAD1 091230Z 26007KT M06/M07 A303 RMK A01 T10561066  RH  093%=      5-min Rain = 0
KAD1 091231Z 26007KT M06/M07 A303 RMK A01 T10571067  RH  093%=      5-min Rain = 0
KAD1 091232Z 26007KT M06/M07 A303 RMK A01 T10571067  RH  092%=      5-min Rain = 0
KAD1 091233Z 26006KT M06/M07 A303 RMK A01 T10581069  RH  092%=      5-min Rain = 0
KAD1 091234Z 26007KT M06/M07 A303 RMK A01 T10591069  RH  092%=      5-min Rain = 0
KAD1 091235Z 26007KT M06/M07 A303 RMK A01 T10591070  RH  092%=      5-min Rain = 0
KAD1 091236Z 27006KT M06/M07 A303 RMK A01 T10591069  RH  093%=      5-min Rain = 0
KAD1 091237Z 27006KT M06/M07 A303 RMK A01 T10591068  RH  093%=      5-min Rain = 0
KAD1 091238Z 27005KT M06/M07 A303 RMK A01 T10591069  RH  093%=      5-min Rain = 0
KAD1 091239Z 27005KT M06/M07 A303 RMK A01 T10591069  RH  093%=      5-min Rain = 0
KAD1 091240Z 27006KT M06/M07 A303 RMK A01 T10601071  RH  092%=      5-min Rain = 0
KAD1 091241Z 27006KT M06/M07 A303 RMK A01 T10611072  RH  092%=      5-min Rain = 0
KAD1 091242Z 28007KT M06/M07 A303 RMK A01 T10611072  RH  092%=      5-min Rain = 0
KAD1 091243Z 28006KT M06/M07 A3031 RMK A01 T10611071  RH  092%=      5-min Rain = 0
KAD1 091244Z 29006KT M06/M07 A3031 RMK A01 T10591068  RH  093%=      5-min Rain = 0
KAD1 091245Z 29006KT M06/M07 A3031 RMK A01 T10571066  RH  093%=      5-min Rain = 0
KAD1 091246Z 29006KT M06/M07 A3031 RMK A01 T10561065  RH  093%=      5-min Rain = 0
KAD1 091247Z 28006KT M06/M07 A3031 RMK A01 T10551065  RH  093%=      5-min Rain = 0
KAD1 091248Z 28005KT M06/M07 A3031 RMK A01 T10551065  RH  093%=      5-min Rain = 0
KAD1 091249Z 28006KT M05/M06 A3031 RMK A01 T10541064  RH  092%=      5-min Rain = 0
KAD1 091250Z 28006KT M05/M06 A3031 RMK A01 T10531063  RH  092%=      5-min Rain = 0
KAD1 091251Z 28006KT M05/M06 A3031 RMK A01 T10521063  RH  092%=      5-min Rain = 0
KAD1 091252Z 28006KT M05/M06 A3031 RMK A01 T10521063  RH  092%=      5-min Rain = 0
KAD1 091253Z 28007KT M05/M06 A3031 RMK A01 T10511062  RH  092%=      5-min Rain = 0
KAD1 091254Z 27007KT M05/M06 A3031 RMK A01 T10501062  RH  091%=      5-min Rain = 0
KAD1 091255Z 27007KT M05/M06 A3031 RMK A01 T10491061  RH  091%=      5-min Rain = 0
KAD1 091256Z 27007KT M05/M06 A3031 RMK A01 T10491061  RH  091%=      5-min Rain = 0
KAD1 091257Z 28007KT M05/M06 A3031 RMK A01 T10481061  RH  091%=      5-min Rain = 0
KAD1 091258Z 28007KT M05/M06 A3031 RMK A01 T10491062  RH  090%=      5-min Rain = 0
KAD1 091259Z 28007KT M05/M06 A3032 RMK A01 T10481062  RH  090%=      5-min Rain = 0
KAD1 091300Z 28007KT M05/M06 A3032 RMK A01 T10491062  RH  090%=      5-min Rain = 0
KAD1 091301Z 27007KT M05/M06 A3032 RMK A01 T10491062  RH  090%=      5-min Rain = 0
KAD1 091302Z 27007KT M05/M06 A3032 RMK A01 T10481062  RH  090%=      5-min Rain = 0
KAD1 091303Z 28007KT M05/M06 A3032 RMK A01 T10491063  RH  090%=      5-min Rain = 0
KAD1 091304Z 27007KT M05/M06 A3032 RMK A01 T10491064  RH  090%=      5-min Rain = 0
KAD1 091305Z 27007KT M05/M07 A3032 RMK A01 T10501065  RH  089%=      5-min Rain = 0
KAD1 091306Z 27007KT M05/M07 A3032 RMK A01 T10521067  RH  089%=      5-min Rain = 0
KAD1 091307Z 27007KT M05/M07 A3032 RMK A01 T10531067  RH  090%=      5-min Rain = 0
KAD1 091308Z 27007KT M05/M07 A3032 RMK A01 T10541068  RH  090%=      5-min Rain = 0
KAD1 091309Z 27006KT M05/M07 A3032 RMK A01 T10541069  RH  090%=      5-min Rain = 0
KAD1 091310Z 26006KT M06/M07 A3032 RMK A01 T10551069  RH  090%=      5-min Rain = 0
KAD1 091311Z 26006KT M06/M07 A3032 RMK A01 T10561070  RH  090%=      5-min Rain = 0
KAD1 091312Z 26006KT M06/M07 A3032 RMK A01 T10571071  RH  090%=      5-min Rain = 0
KAD1 091313Z 26006KT M06/M07 A3032 RMK A01 T10571071  RH  090%=      5-min Rain = 0
KAD1 091314Z 26007KT M06/M07 A3032 RMK A01 T10581072  RH  090%=      5-min Rain = 0
KAD1 091315Z 26007KT M06/M07 A3032 RMK A01 T10591073  RH  090%=      5-min Rain = 0
KAD1 091316Z 26006KT M06/M07 A3032 RMK A01 T10591072  RH  091%=      5-min Rain = 0
KAD1 091317Z 26006KT M06/M07 A3032 RMK A01 T10591072  RH  091%=      5-min Rain = 0
KAD1 091318Z 26006KT M06/M07 A3032 RMK A01 T10591072  RH  091%=      5-min Rain = 0
KAD1 091319Z 26006KT M06/M07 A3031 RMK A01 T10601072  RH  091%=      5-min Rain = 0
KAD1 091320Z 25006KT M06/M07 A3031 RMK A01 T10601072  RH  091%=      5-min Rain = 0
KAD1 091321Z 25006KT M06/M07 A3031 RMK A01 T10601072  RH  091%=      5-min Rain = 0
KAD1 091322Z 25006KT M06/M07 A3031 RMK A01 T10611073  RH  091%=      5-min Rain = 0
KAD1 091323Z 25006KT M06/M07 A3031 RMK A01 T10611074  RH  091%=      5-min Rain = 0
KAD1 091324Z 25006KT M06/M08 A3031 RMK A01 T10631075  RH  091%=      5-min Rain = 0
KAD1 091325Z 25006KT M06/M08 A3031 RMK A01 T10631075  RH  091%=      5-min Rain = 0
KAD1 091326Z 25006KT M06/M08 A3031 RMK A01 T10641075  RH  091%=      5-min Rain = 0
KAD1 091327Z 25006KT M06/M08 A3032 RMK A01 T10641075  RH  091%=      5-min Rain = 0
KAD1 091328Z 25006KT M06/M08 A3032 RMK A01 T10641076  RH  092%=      5-min Rain = 0
KAD1 091329Z 26006KT M07/M08 A3032 RMK A01 T10651076  RH  092%=      5-min Rain = 0
KAD1 091330Z 26006KT M07/M08 A3032 RMK A01 T10651076  RH  092%=      5-min Rain = 0
KAD1 091331Z 26006KT M07/M08 A3032 RMK A01 T10651075  RH  092%=      5-min Rain = 0
KAD1 091332Z 26006KT M07/M08 A3032 RMK A01 T10651076  RH  092%=      5-min Rain = 0
KAD1 091333Z 26006KT M07/M08 A3032 RMK A01 T10651076  RH  092%=      5-min Rain = 0
KAD1 091334Z 26007KT M07/M08 A3032 RMK A01 T10651076  RH  092%=      5-min Rain = 0
KAD1 091335Z 26007KT M07/M08 A3032 RMK A01 T10651076  RH  092%=      5-min Rain = 0
KAD1 091336Z 25007KT M07/M08 A3032 RMK A01 T10651075  RH  092%=      5-min Rain = 0
KAD1 091337Z 25007KT M07/M08 A3032 RMK A01 T10651075  RH  093%=      5-min Rain = 0
KAD1 091338Z 25008KT M06/M08 A3032 RMK A01 T10641075  RH  093%=      5-min Rain = 0
KAD1 091339Z 26008KT M06/M07 A3032 RMK A01 T10641074  RH  093%=      5-min Rain = 0
KAD1 091340Z 26008KT M06/M07 A3032 RMK A01 T10641074  RH  093%=      5-min Rain = 0
KAD1 091341Z 26008KT M06/M07 A3032 RMK A01 T10631073  RH  093%=      5-min Rain = 0
KAD1 091342Z 26008KT M06/M07 A3032 RMK A01 T10621071  RH  093%=      5-min Rain = 0
KAD1 091343Z 26008KT M06/M07 A3033 RMK A01 T10621071  RH  093%=      5-min Rain = 0
KAD1 091344Z 27007KT M06/M07 A3033 RMK A01 T10611071  RH  093%=      5-min Rain = 0
KAD1 091345Z 27008KT M06/M07 A3033 RMK A01 T10611071  RH  093%=      5-min Rain = 0
KAD1 091346Z 27008KT M06/M07 A3033 RMK A01 T10611071  RH  093%=      5-min Rain = 0
KAD1 091347Z 26008KT M06/M07 A3033 RMK A01 T10611071  RH  093%=      5-min Rain = 0
KAD1 091348Z 26008KT M06/M07 A3033 RMK A01 T10611071  RH  093%=      5-min Rain = 0
KAD1 091349Z 26008KT M06/M07 A3033 RMK A01 T10611071  RH  093%=      5-min Rain = 0
KAD1 091350Z 26009KT M06/M07 A3033 RMK A01 T10611070  RH  093%=      5-min Rain = 0
KAD1 091351Z 26009KT M06/M07 A3033 RMK A01 T10601069  RH  093%=      5-min Rain = 0
KAD1 091352Z 26009KT M06/M07 A3033 RMK A01 T10591068  RH  093%=      5-min Rain = 0
KAD1 091353Z 26009KT M06/M07 A3033 RMK A01 T10591068  RH  093%=      5-min Rain = 0
KAD1 091354Z 26009KT M06/M07 A3033 RMK A01 T10581067  RH  093%=      5-min Rain = 0
KAD1 091355Z 26009KT M06/M07 A3033 RMK A01 T10581067  RH  093%=      5-min Rain = 0
KAD1 091356Z 26009KT M06/M07 A3033 RMK A01 T10571066  RH  093%=      5-min Rain = 0
KAD1 091357Z 25009KT M06/M07 A3033 RMK A01 T10561065  RH  093%=      5-min Rain = 0
KAD1 091358Z 25008KT M06/M07 A3033 RMK A01 T10561065  RH  093%=      5-min Rain = 0
KAD1 091359Z 25008KT M06/M07 A3033 RMK A01 T10561065  RH  093%=      5-min Rain = 0
KAD1 091400Z 25008KT M06/M07 A3033 RMK A01 T10551065  RH  093%=      5-min Rain = 0
KAD1 091401Z 25008KT M06/M07 A3033 RMK A01 T10551065  RH  093%=      5-min Rain = 0
KAD1 091402Z 26008KT M06/M07 A3033 RMK A01 T10551065  RH  093%=      5-min Rain = 0
KAD1 091403Z 26008KT M06/M07 A3033 RMK A01 T10551065  RH  093%=      5-min Rain = 0
KAD1 091404Z 26008KT M06/M07 A3033 RMK A01 T10551065  RH  093%=      5-min Rain = 0
KAD1 091405Z 26008KT M06/M07 A3033 RMK A01 T10551065  RH  093%=      5-min Rain = 0
KAD1 091406Z 26008KT M06/M06 A3033 RMK A01 T10551064  RH  093%=      5-min Rain = 0
KAD1 091407Z 26009KT M05/M06 A3033 RMK A01 T10541063  RH  093%=      5-min Rain = 0
KAD1 091408Z 26009KT M05/M06 A3033 RMK A01 T10531062  RH  093%=      5-min Rain = 0
KAD1 091409Z 26009KT M05/M06 A3033 RMK A01 T10531061  RH  094%=      5-min Rain = 0
KAD1 091410Z 26009KT M05/M06 A3033 RMK A01 T10521061  RH  094%=      5-min Rain = 0
KAD1 091411Z 27009KT M05/M06 A3034 RMK A01 T10521060  RH  094%=      5-min Rain = 0
KAD1 091412Z 27009KT M05/M06 A3034 RMK A01 T10511059  RH  094%=      5-min Rain = 0
KAD1 091413Z 27009KT M05/M06 A3034 RMK A01 T10501059  RH  094%=      5-min Rain = 0
KAD1 091414Z 27008KT M05/M06 A3034 RMK A01 T10491058  RH  094%=      5-min Rain = 0
KAD1 091415Z 27009KT M05/M06 A3034 RMK A01 T10481057  RH  094%=      5-min Rain = 0
KAD1 091416Z 27009KT M05/M06 A3034 RMK A01 T10471055  RH  094%=      5-min Rain = 0
KAD1 091417Z 27009KT M05/M05 A3034 RMK A01 T10461054  RH  094%=      5-min Rain = 0
KAD1 091418Z 27009KT M05/M05 A3034 RMK A01 T10451054  RH  093%=      5-min Rain = 0
KAD1 091419Z 27008KT M05/M06 A3034 RMK A01 T10451055  RH  093%=      5-min Rain = 0
KAD1 091420Z 27008KT M05/M06 A3034 RMK A01 T10451055  RH  093%=      5-min Rain = 0
KAD1 091421Z 27008KT M05/M06 A3034 RMK A01 T10451055  RH  092%=      5-min Rain = 0
KAD1 091422Z 27008KT M04/M06 A3034 RMK A01 T10441055  RH  092%=      5-min Rain = 0
KAD1 091423Z 26008KT M04/M06 A3034 RMK A01 T10441055  RH  092%=      5-min Rain = 0
KAD1 091424Z 26008KT M04/M06 A3034 RMK A01 T10441055  RH  092%=      5-min Rain = 0
KAD1 091425Z 26007KT M04/M05 A3034 RMK A01 T10431054  RH  092%=      5-min Rain = 0
KAD1 091426Z 26007KT M04/M05 A3034 RMK A01 T10431054  RH  092%=      5-min Rain = 0
KAD1 091427Z 26007KT M04/M05 A3034 RMK A01 T10431053  RH  092%=      5-min Rain = 0
KAD1 091428Z 26007KT M04/M05 A3034 RMK A01 T10421053  RH  092%=      5-min Rain = 0
KAD1 091429Z 26008KT M04/M05 A3034 RMK A01 T10421052  RH  093%=      5-min Rain = 0
KAD1 091430Z 26007KT M04/M05 A3034 RMK A01 T10411051  RH  093%=      5-min Rain = 0
KAD1 091431Z 26008KT M04/M05 A3034 RMK A01 T10411051  RH  092%=      5-min Rain = 0
KAD1 091432Z 26008KT M04/M05 A3034 RMK A01 T10411051  RH  092%=      5-min Rain = 0
KAD1 091433Z 26008KT M04/M05 A3034 RMK A01 T10411052  RH  092%=      5-min Rain = 0
KAD1 091434Z 26008KT M04/M05 A3034 RMK A01 T10411051  RH  092%=      5-min Rain = 0
KAD1 091435Z 26008KT M04/M05 A3034 RMK A01 T10411051  RH  093%=      5-min Rain = 0
KAD1 091436Z 26007KT M04/M05 A3034 RMK A01 T10401050  RH  093%=      5-min Rain = 0
KAD1 091437Z 27006KT M04/M05 A3034 RMK A01 T10401050  RH  093%=      5-min Rain = 0
KAD1 091438Z 26007KT M04/M05 A3034 RMK A01 T10391049  RH  093%=      5-min Rain = 0
KAD1 091439Z 27007KT M04/M05 A3034 RMK A01 T10391048  RH  093%=      5-min Rain = 0
KAD1 091440Z 27007KT M04/M05 A3034 RMK A01 T10381048  RH  093%=      5-min Rain = 0
KAD1 091441Z 27007KT M04/M05 A3034 RMK A01 T10381047  RH  093%=      5-min Rain = 0
KAD1 091442Z 27007KT M04/M05 A3034 RMK A01 T10381047  RH  093%=      5-min Rain = 0
KAD1 091443Z 28008KT M04/M05 A3034 RMK A01 T10371046  RH  093%=      5-min Rain = 0
KAD1 091444Z 28007KT M04/M05 A3034 RMK A01 T10361046  RH  093%=      5-min Rain = 0
KAD1 091445Z 28006KT M04/M05 A3034 RMK A01 T10351045  RH  093%=      5-min Rain = 0
KAD1 091446Z 28006KT M03/M04 A3034 RMK A01 T10341044  RH  093%=      5-min Rain = 0
KAD1 091447Z 28007KT M03/M04 A3034 RMK A01 T10341044  RH  093%=      5-min Rain = 0
KAD1 091448Z 28007KT M03/M05 A3034 RMK A01 T10341045  RH  093%=      5-min Rain = 0
KAD1 091449Z 28006KT M03/M05 A3034 RMK A01 T10341045  RH  093%=      5-min Rain = 0
KAD1 091450Z 28007KT M03/M04 A3034 RMK A01 T10341044  RH  093%=      5-min Rain = 0
KAD1 091451Z 28007KT M03/M04 A3034 RMK A01 T10341044  RH  093%=      5-min Rain = 0
KAD1 091452Z 28007KT M03/M04 A3034 RMK A01 T10341044  RH  093%=      5-min Rain = 0
KAD1 091453Z 29006KT M03/M04 A3034 RMK A01 T10341044  RH  093%=      5-min Rain = 0
KAD1 091454Z 29005KT M03/M04 A3034 RMK A01 T10331044  RH  092%=      5-min Rain = 0
KAD1 091455Z 29006KT M03/M04 A3034 RMK A01 T10331044  RH  092%=      5-min Rain = 0
KAD1 091456Z 28006KT M03/M05 A3034 RMK A01 T10331045  RH  092%=      5-min Rain = 0
KAD1 091457Z 28006KT M03/M04 A3034 RMK A01 T10331044  RH  092%=      5-min Rain = 0
KAD1 091458Z 28005KT M03/M04 A3034 RMK A01 T10321044  RH  091%=      5-min Rain = 0
KAD1 091459Z 28006KT M03/M05 A3034 RMK A01 T10321045  RH  091%=      5-min Rain = 0
KAD1 091500Z 28005KT M03/M05 A3034 RMK A01 T10321045  RH  090%=      5-min Rain = 0
KAD1 091501Z 28006KT M03/M05 A3034 RMK A01 T10311045  RH  090%=      5-min Rain = 0
KAD1 091502Z 28006KT M03/M04 A3034 RMK A01 T10301044  RH  090%=      5-min Rain = 0
KAD1 091503Z 28006KT M03/M05 A3034 RMK A01 T10301045  RH  090%=      5-min Rain = 0
KAD1 091504Z 28007KT M03/M05 A3034 RMK A01 T10301045  RH  089%=      5-min Rain = 0
KAD1 091505Z 28007KT M03/M04 A3034 RMK A01 T10291044  RH  089%=      5-min Rain = 0
KAD1 091506Z 28006KT M03/M04 A3035 RMK A01 T10271042  RH  089%=      5-min Rain = 0
KAD1 091507Z 28007KT M03/M04 A3035 RMK A01 T10261041  RH  089%=      5-min Rain = 0
KAD1 091508Z 27007KT M03/M04 A3035 RMK A01 T10251041  RH  089%=      5-min Rain = 0
KAD1 091509Z 28007KT M03/M04 A3035 RMK A01 T10251041  RH  089%=      5-min Rain = 0
KAD1 091510Z 27007KT M03/M04 A3035 RMK A01 T10251042  RH  088%=      5-min Rain = 0
KAD1 091511Z 27008KT M03/M04 A3035 RMK A01 T10251043  RH  088%=      5-min Rain = 0
KAD1 091512Z 28008KT M03/M04 A3035 RMK A01 T10251043  RH  087%=      5-min Rain = 0
KAD1 091513Z 28008KT M02/M04 A3035 RMK A01 T10241043  RH  087%=      5-min Rain = 0
KAD1 091514Z 27007KT M02/M04 A3035 RMK A01 T10241042  RH  088%=      5-min Rain = 0
KAD1 091515Z 28007KT M02/M04 A3035 RMK A01 T10231041  RH  088%=      5-min Rain = 0
KAD1 091516Z 27007KT M02/M04 A3035 RMK A01 T10231040  RH  088%=      5-min Rain = 0
KAD1 091517Z 27007KT M02/M04 A3035 RMK A01 T10221040  RH  088%=      5-min Rain = 0
KAD1 091518Z 27006KT M02/M04 A3035 RMK A01 T10211039  RH  088%=      5-min Rain = 0
KAD1 091519Z 28007KT M02/M04 A3035 RMK A01 T10201038  RH  087%=      5-min Rain = 0
KAD1 091520Z 27006KT M02/M04 A3035 RMK A01 T10201039  RH  086%=      5-min Rain = 0
KAD1 091521Z 28006KT M02/M04 A3035 RMK A01 T10191039  RH  086%=      5-min Rain = 0
KAD1 091522Z 28007KT M02/M04 A3035 RMK A01 T10191041  RH  085%=      5-min Rain = 0
KAD1 091523Z 28007KT M02/M04 A3035 RMK A01 T10201042  RH  085%=      5-min Rain = 0
KAD1 091524Z 28007KT M02/M04 A3035 RMK A01 T10201043  RH  084%=      5-min Rain = 0
KAD1 091525Z 28007KT M02/M04 A3035 RMK A01 T10201043  RH  084%=      5-min Rain = 0
KAD1 091526Z 28007KT M02/M04 A3035 RMK A01 T10201044  RH  084%=      5-min Rain = 0
KAD1 091527Z 28007KT M02/M04 A3035 RMK A01 T10201044  RH  084%=      5-min Rain = 0
KAD1 091528Z 28007KT M02/M05 A3036 RMK A01 T10201045  RH  083%=      5-min Rain = 0
KAD1 091529Z 28007KT M02/M05 A3036 RMK A01 T10201045  RH  083%=      5-min Rain = 0
KAD1 091530Z 28007KT M02/M05 A3036 RMK A01 T10201045  RH  083%=      5-min Rain = 0
KAD1 091531Z 28006KT M02/M04 A3035 RMK A01 T10201044  RH  083%=      5-min Rain = 0
KAD1 091532Z 27005KT M02/M04 A3035 RMK A01 T10201043  RH  084%=      5-min Rain = 0
KAD1 091533Z 28006KT M02/M04 A3036 RMK A01 T10191043  RH  084%=      5-min Rain = 0
KAD1 091534Z 28005KT M02/M04 A3036 RMK A01 T10181043  RH  083%=      5-min Rain = 0
KAD1 091535Z 28006KT M02/M04 A3036 RMK A01 T10181043  RH  083%=      5-min Rain = 0
KAD1 091536Z 27005KT M02/M04 A3036 RMK A01 T10181043  RH  083%=      5-min Rain = 0
KAD1 091537Z 28006KT M02/M04 A3036 RMK A01 T10161041  RH  083%=      5-min Rain = 0
KAD1 091538Z 27006KT M02/M04 A3036 RMK A01 T10161042  RH  082%=      5-min Rain = 0
KAD1 091539Z 27005KT M02/M04 A3036 RMK A01 T10151041  RH  082%=      5-min Rain = 0
KAD1 091540Z 27006KT M01/M04 A3036 RMK A01 T10141043  RH  081%=      5-min Rain = 0
KAD1 091541Z 28005KT M02/M05 A3036 RMK A01 T10151045  RH  080%=      5-min Rain = 0
KAD1 091542Z 28005KT M02/M04 A3036 RMK A01 T10151043  RH  081%=      5-min Rain = 0
KAD1 091543Z 28006KT M01/M04 A3036 RMK A01 T10141043  RH  081%=      5-min Rain = 0
KAD1 091544Z 28005KT M01/M04 A3036 RMK A01 T10141043  RH  081%=      5-min Rain = 0
KAD1 091545Z 28004KT M01/M04 A3036 RMK A01 T10141041  RH  081%=      5-min Rain = 0
KAD1 091546Z 29004KT M01/M04 A3036 RMK A01 T10121039  RH  082%=      5-min Rain = 0
KAD1 091547Z 28004KT M01/M04 A3036 RMK A01 T10121041  RH  081%=      5-min Rain = 0
KAD1 091548Z 29004KT M01/M04 A3036 RMK A01 T10111039  RH  081%=      5-min Rain = 0
KAD1 091549Z 28005KT M01/M04 A3036 RMK A01 T10101039  RH  081%=      5-min Rain = 0
KAD1 091550Z 28005KT M01/M04 A3036 RMK A01 T10101039  RH  080%=      5-min Rain = 0
KAD1 091551Z 28005KT M01/M04 A3036 RMK A01 T10101040  RH  080%=      5-min Rain = 0
KAD1 091552Z 28004KT M01/M04 A3036 RMK A01 T10101040  RH  080%=      5-min Rain = 0
KAD1 091553Z 28005KT M01/M04 A3036 RMK A01 T10091040  RH  080%=      5-min Rain = 0
KAD1 091554Z 29005KT M01/M04 A3036 RMK A01 T10091043  RH  078%=      5-min Rain = 0
KAD1 091555Z 29004KT M01/M04 A3036 RMK A01 T10091044  RH  077%=      5-min Rain = 0
KAD1 091556Z 28005KT M01/M04 A3036 RMK A01 T10081044  RH  077%=      5-min Rain = 0
KAD1 091557Z 29005KT M01/M04 A3036 RMK A01 T10071043  RH  077%=      5-min Rain = 0
KAD1 091558Z 29005KT M01/M05 A3036 RMK A01 T10071045  RH  075%=      5-min Rain = 0
KAD1 091559Z 30004KT M01/M04 A3036 RMK A01 T10061043  RH  076%=      5-min Rain = 0
KAD1 091600Z 28004KT M00/M04 A3037 RMK A01 T10041038  RH  077%=      5-min Rain = 0
KAD1 091601Z 30005KT M00/M04 A3037 RMK A01 T10021040  RH  075%=      5-min Rain = 0
KAD1 091602Z 29005KT M00/M04 A3037 RMK A01 T10021043  RH  074%=      5-min Rain = 0
KAD1 091603Z 28004KT M00/M04 A3037 RMK A01 T10031043  RH  074%=      5-min Rain = 0
KAD1 091604Z 28005KT M00/M05 A3037 RMK A01 T10031045  RH  073%=      5-min Rain = 0
KAD1 091605Z 28005KT M00/M05 A3037 RMK A01 T10031046  RH  073%=      5-min Rain = 0
KAD1 091606Z 28005KT M00/M05 A3037 RMK A01 T10021045  RH  073%=      5-min Rain = 0
KAD1 091607Z 29005KT M00/M05 A3037 RMK A01 T10021045  RH  073%=      5-min Rain = 0
KAD1 091608Z 29005KT M00/M05 A3037 RMK A01 T10011045  RH  072%=      5-min Rain = 0
KAD1 091609Z 31004KT 00/04 A3037 RMK A01 T00000-43  RH  073%=      5-min Rain = 0
KAD1 091610Z 31004KT 00/M04 A3037 RMK A01 T00011044  RH  072%=      5-min Rain = 0
KAD1 091611Z 31005KT 00/M04 A3037 RMK A01 T00021044  RH  071%=      5-min Rain = 0
KAD1 091612Z 31005KT 00/M05 A3037 RMK A01 T00021047  RH  070%=      5-min Rain = 0
KAD1 091613Z 31004KT 00/M05 A3037 RMK A01 T00021048  RH  069%=      5-min Rain = 0
KAD1 091614Z 31005KT 00/M05 A3037 RMK A01 T00011047  RH  070%=      5-min Rain = 0
KAD1 091615Z 30005KT 00/M04 A3037 RMK A01 T00031044  RH  071%=      5-min Rain = 0
KAD1 091616Z 30005KT 01/M04 A3037 RMK A01 T00051042  RH  071%=      5-min Rain = 0
KAD1 091617Z 30004KT 01/M05 A3037 RMK A01 T00051045  RH  069%=      5-min Rain = 0
KAD1 091618Z 31004KT 01/M04 A3037 RMK A01 T00051044  RH  069%=      5-min Rain = 0
KAD1 091619Z 30004KT 01/M04 A3037 RMK A01 T00061043  RH  070%=      5-min Rain = 0
KAD1 091620Z 31004KT 01/M04 A3037 RMK A01 T00061044  RH  069%=      5-min Rain = 0
KAD1 091621Z 31004KT 01/M04 A3037 RMK A01 T00071044  RH  069%=      5-min Rain = 0
KAD1 091622Z 31004KT 01/M05 A3037 RMK A01 T00071045  RH  068%=      5-min Rain = 0
KAD1 091623Z 30005KT 01/M05 A3037 RMK A01 T00071046  RH  068%=      5-min Rain = 0
KAD1 091624Z 31004KT 01/M05 A3037 RMK A01 T00071047  RH  067%=      5-min Rain = 0
KAD1 091625Z 31005KT 01/M05 A3037 RMK A01 T00071047  RH  067%=      5-min Rain = 0
KAD1 091626Z 31005KT 01/M05 A3037 RMK A01 T00081049  RH  066%=      5-min Rain = 0
KAD1 091627Z 30006KT 01/M05 A3037 RMK A01 T00081049  RH  066%=      5-min Rain = 0
KAD1 091628Z 31005KT 01/M05 A3037 RMK A01 T00071049  RH  066%=      5-min Rain = 0
KAD1 091629Z 30005KT 01/M05 A3037 RMK A01 T00071050  RH  066%=      5-min Rain = 0
KAD1 091630Z 29005KT 01/M05 A3037 RMK A01 T00071050  RH  065%=      5-min Rain = 0
KAD1 091631Z 29005KT 01/M05 A3037 RMK A01 T00081049  RH  066%=      5-min Rain = 0
KAD1 091632Z 31005KT 01/M05 A3037 RMK A01 T00101048  RH  065%=      5-min Rain = 0
KAD1 091633Z 31005KT 01/M05 A3037 RMK A01 T00111050  RH  064%=      5-min Rain = 0
KAD1 091634Z 30005KT 01/M05 A3037 RMK A01 T00121049  RH  064%=      5-min Rain = 0
KAD1 091635Z 31005KT 01/M05 A3037 RMK A01 T00131048  RH  064%=      5-min Rain = 0
KAD1 091636Z 30005KT 01/M05 A3037 RMK A01 T00131048  RH  064%=      5-min Rain = 0
KAD1 091637Z 30005KT 01/M05 A3037 RMK A01 T00121048  RH  064%=      5-min Rain = 0
KAD1 091638Z 31005KT 01/M05 A3037 RMK A01 T00141048  RH  064%=      5-min Rain = 0
KAD1 091639Z 32005KT 01/M05 A3037 RMK A01 T00141048  RH  063%=      5-min Rain = 0
KAD1 091640Z 31006KT 01/M05 A3037 RMK A01 T00141049  RH  063%=      5-min Rain = 0
KAD1 091641Z 30005KT 01/M05 A3037 RMK A01 T00131051  RH  062%=      5-min Rain = 0
KAD1 091642Z 31005KT 01/M05 A3037 RMK A01 T00131048  RH  064%=      5-min Rain = 0
KAD1 091643Z 33005KT 02/M04 A3037 RMK A01 T00161044  RH  064%=      5-min Rain = 0
KAD1 091644Z 31005KT 02/M05 A3037 RMK A01 T00161048  RH  063%=      5-min Rain = 0
KAD1 091645Z 30005KT 02/M05 A3037 RMK A01 T00151045  RH  064%=      5-min Rain = 0
KAD1 091646Z 31005KT 02/M05 A3037 RMK A01 T00171046  RH  063%=      5-min Rain = 0
KAD1 091647Z 32005KT 02/M05 A3037 RMK A01 T00171047  RH  062%=      5-min Rain = 0
KAD1 091648Z 31006KT 02/M05 A3037 RMK A01 T00171046  RH  063%=      5-min Rain = 0
KAD1 091649Z 31006KT 02/M05 A3037 RMK A01 T00171046  RH  063%=      5-min Rain = 0
KAD1 091650Z 32005KT 02/M05 A3037 RMK A01 T00171046  RH  063%=      5-min Rain = 0
KAD1 091651Z 32005KT 02/M05 A3037 RMK A01 T00161048  RH  063%=      5-min Rain = 0
KAD1 091652Z 31005KT 02/M05 A3037 RMK A01 T00161046  RH  063%=      5-min Rain = 0
KAD1 091653Z 31006KT 02/M05 A3037 RMK A01 T00171045  RH  063%=      5-min Rain = 0
KAD1 091654Z 30005KT 02/M05 A3037 RMK A01 T00171046  RH  063%=      5-min Rain = 0
KAD1 091655Z 30006KT 02/M05 A3037 RMK A01 T00171046  RH  063%=      5-min Rain = 0
KAD1 091656Z 31006KT 02/M05 A3037 RMK A01 T00161048  RH  062%=      5-min Rain = 0
KAD1 091657Z 30005KT 02/M05 A3037 RMK A01 T00161046  RH  063%=      5-min Rain = 0
KAD1 091658Z 30006KT 02/M05 A3037 RMK A01 T00181046  RH  063%=      5-min Rain = 0
KAD1 091659Z 31006KT 02/M05 A3037 RMK A01 T00181046  RH  063%=      5-min Rain = 0
KAD1 091700Z 29006KT 02/M05 A3037 RMK A01 T00171046  RH  063%=      5-min Rain = 0
KAD1 091701Z 30006KT 02/M05 A3037 RMK A01 T00191046  RH  062%=      5-min Rain = 0
KAD1 091702Z 29004KT 02/M05 A3037 RMK A01 T00191046  RH  062%=      5-min Rain = 0
KAD1 091703Z 29005KT 02/M04 A3037 RMK A01 T00221043  RH  062%=      5-min Rain = 0
KAD1 091704Z 29005KT 02/M05 A3037 RMK A01 T00241045  RH  061%=      5-min Rain = 0
KAD1 091705Z 29004KT 02/M05 A3037 RMK A01 T00231045  RH  061%=      5-min Rain = 0
KAD1 091706Z 31005KT 02/M05 A3037 RMK A01 T00241046  RH  060%=      5-min Rain = 0
KAD1 091707Z 29005KT 02/M04 A3037 RMK A01 T00241044  RH  061%=      5-min Rain = 0
KAD1 091708Z 31004KT 03/M05 A3037 RMK A01 T00251045  RH  060%=      5-min Rain = 0
KAD1 091709Z 31006KT 03/M05 A3037 RMK A01 T00251046  RH  060%=      5-min Rain = 0
KAD1 091710Z 31004KT 02/M05 A3037 RMK A01 T00241047  RH  060%=      5-min Rain = 0
KAD1 091711Z 32004KT 02/M05 A3037 RMK A01 T00241046  RH  060%=      5-min Rain = 0
KAD1 091712Z 31005KT 03/M04 A3037 RMK A01 T00271043  RH  060%=      5-min Rain = 0
KAD1 091713Z 31005KT 03/M05 A3037 RMK A01 T00281045  RH  059%=      5-min Rain = 0
KAD1 091714Z 30005KT 03/M05 A3037 RMK A01 T00271045  RH  059%=      5-min Rain = 0
KAD1 091715Z 32005KT 03/M05 A3037 RMK A01 T00261045  RH  059%=      5-min Rain = 0
KAD1 091716Z 34004KT 03/M04 A3037 RMK A01 T00271043  RH  060%=      5-min Rain = 0
KAD1 091717Z 33004KT 03/M04 A3037 RMK A01 T00281044  RH  059%=      5-min Rain = 0
KAD1 091718Z 32004KT 03/M04 A3037 RMK A01 T00301041  RH  059%=      5-min Rain = 0
KAD1 091719Z 32006KT 03/M04 A3037 RMK A01 T00321042  RH  058%=      5-min Rain = 0
KAD1 091720Z 32006KT 03/M04 A3037 RMK A01 T00311044  RH  058%=      5-min Rain = 0
KAD1 091721Z 32005KT 03/M05 A3037 RMK A01 T00291046  RH  058%=      5-min Rain = 0
KAD1 091722Z 31005KT 03/M05 A3037 RMK A01 T00281045  RH  059%=      5-min Rain = 0
KAD1 091723Z 31004KT 03/M04 A3037 RMK A01 T00291043  RH  059%=      5-min Rain = 0
KAD1 091724Z 31005KT 03/M04 A3037 RMK A01 T00311042  RH  059%=      5-min Rain = 0
KAD1 091725Z 32006KT 03/M04 A3037 RMK A01 T00331042  RH  058%=      5-min Rain = 0
KAD1 091726Z 31005KT 03/M04 A3037 RMK A01 T00331042  RH  058%=      5-min Rain = 0
KAD1 091727Z 34005KT 03/M04 A3037 RMK A01 T00331042  RH  058%=      5-min Rain = 0
KAD1 091728Z 32007KT 04/M04 A3037 RMK A01 T00351040  RH  058%=      5-min Rain = 0
KAD1 091729Z 30005KT 04/M04 A3037 RMK A01 T00361041  RH  057%=      5-min Rain = 0
KAD1 091730Z 30006KT 03/M04 A3037 RMK A01 T00341042  RH  058%=      5-min Rain = 0
KAD1 091731Z 31006KT 04/M04 A3037 RMK A01 T00361040  RH  058%=      5-min Rain = 0
KAD1 091732Z 33006KT 04/M04 A3037 RMK A01 T00371040  RH  057%=      5-min Rain = 0
KAD1 091733Z 32006KT 04/M04 A3037 RMK A01 T00381041  RH  056%=      5-min Rain = 0
KAD1 091734Z 34005KT 04/M04 A3037 RMK A01 T00351044  RH  056%=      5-min Rain = 0
KAD1 091735Z 34008KT 04/M04 A3037 RMK A01 T00361041  RH  057%=      5-min Rain = 0
KAD1 091736Z 34007KT 04/M04 A3037 RMK A01 T00381042  RH  056%=      5-min Rain = 0
KAD1 091737Z 34007KT 04/M04 A3037 RMK A01 T00391042  RH  056%=      5-min Rain = 0
KAD1 091738Z 35006KT 04/M04 A3037 RMK A01 T00391044  RH  055%=      5-min Rain = 0
KAD1 091739Z 34005KT 04/M04 A3037 RMK A01 T00391044  RH  055%=      5-min Rain = 0
KAD1 091740Z 32005KT 04/M04 A3037 RMK A01 T00391042  RH  055%=      5-min Rain = 0
KAD1 091741Z 32007KT 04/M04 A3037 RMK A01 T00401042  RH  055%=      5-min Rain = 0
KAD1 091742Z 31006KT 04/M04 A3037 RMK A01 T00401044  RH  054%=      5-min Rain = 0
KAD1 091743Z 32007KT 04/M04 A3037 RMK A01 T00391043  RH  055%=      5-min Rain = 0
KAD1 091744Z 32006KT 04/M04 A3037 RMK A01 T00421040  RH  055%=      5-min Rain = 0
KAD1 091745Z 33006KT 04/M04 A3037 RMK A01 T00431042  RH  054%=      5-min Rain = 0
KAD1 091746Z 33006KT 04/M04 A3037 RMK A01 T00411044  RH  054%=      5-min Rain = 0
KAD1 091747Z 33006KT 04/M04 A3037 RMK A01 T00411042  RH  055%=      5-min Rain = 0
KAD1 091748Z 35005KT 04/M04 A3037 RMK A01 T00441040  RH  054%=      5-min Rain = 0
KAD1 091749Z 33005KT 05/M04 A3037 RMK A01 T00461041  RH  053%=      5-min Rain = 0
KAD1 091750Z 34004KT 05/M04 A3037 RMK A01 T00451042  RH  053%=      5-min Rain = 0
KAD1 091751Z 01004KT 04/M04 A3037 RMK A01 T00431044  RH  053%=      5-min Rain = 0
KAD1 091752Z 33004KT 04/M04 A3037 RMK A01 T00431043  RH  053%=      5-min Rain = 0
KAD1 091753Z 33002KT 04/M04 A3037 RMK A01 T00441043  RH  053%=      5-min Rain = 0
KAD1 091754Z 35006KT 05/M04 A3037 RMK A01 T00451042  RH  053%=      5-min Rain = 0
KAD1 091755Z 35006KT 05/M04 A3037 RMK A01 T00481041  RH  053%=      5-min Rain = 0
KAD1 091756Z 33005KT 05/M04 A3037 RMK A01 T00481043  RH  052%=      5-min Rain = 0
KAD1 091757Z 34005KT 05/M04 A3037 RMK A01 T00471044  RH  052%=      5-min Rain = 0
KAD1 091758Z 34005KT 05/M04 A3037 RMK A01 T00471044  RH  052%=      5-min Rain = 0
KAD1 091759Z 33005KT 05/M04 A3037 RMK A01 T00481043  RH  052%=      5-min Rain = 0
KAD1 091800Z 34004KT 05/M04 A3037 RMK A01 T00491041  RH  052%=      5-min Rain = 0
KAD1 091801Z 34004KT 05/M04 A3037 RMK A01 T00511041  RH  051%=      5-min Rain = 0
KAD1 091802Z 34007KT 05/M04 A3037 RMK A01 T00521042  RH  051%=      5-min Rain = 0
KAD1 091803Z 32006KT 05/M05 A3036 RMK A01 T00521045  RH  050%=      5-min Rain = 0
KAD1 091804Z 33005KT 05/M05 A3036 RMK A01 T00491047  RH  050%=      5-min Rain = 0
KAD1 091805Z 36003KT 05/M05 A3036 RMK A01 T00481045  RH  051%=      5-min Rain = 0
KAD1 091806Z 34005KT 05/M04 A3036 RMK A01 T00491042  RH  052%=      5-min Rain = 0
KAD1 091807Z 34005KT 05/M04 A3036 RMK A01 T00491043  RH  051%=      5-min Rain = 0
KAD1 091808Z 01006KT 05/M04 A3036 RMK A01 T00501043  RH  051%=      5-min Rain = 0
KAD1 091809Z 00005KT 05/M04 A3036 RMK A01 T00531044  RH  050%=      5-min Rain = 0
KAD1 091810Z 01004KT 05/M05 A3036 RMK A01 T00521046  RH  049%=      5-min Rain = 0
KAD1 091811Z 01004KT 05/M05 A3036 RMK A01 T00511045  RH  050%=      5-min Rain = 0
KAD1 091812Z 35004KT 05/M05 A3036 RMK A01 T00511046  RH  050%=      5-min Rain = 0
KAD1 091813Z 35004KT 05/M04 A3036 RMK A01 T00521044  RH  050%=      5-min Rain = 0
KAD1 091814Z 34005KT 05/M04 A3035 RMK A01 T00541040  RH  050%=      5-min Rain = 0
KAD1 091815Z 34005KT 06/M04 A3035 RMK A01 T00561041  RH  050%=      5-min Rain = 0
KAD1 091816Z 01006KT 06/M04 A3035 RMK A01 T00561044  RH  049%=      5-min Rain = 0
KAD1 091817Z 36006KT 06/M04 A3035 RMK A01 T00561044  RH  049%=      5-min Rain = 0
KAD1 091818Z 35006KT 06/M04 A3035 RMK A01 T00581043  RH  048%=      5-min Rain = 0
KAD1 091819Z 35007KT 06/M04 A3035 RMK A01 T00581044  RH  048%=      5-min Rain = 0
KAD1 091820Z 35007KT 06/M04 A3035 RMK A01 T00591044  RH  048%=      5-min Rain = 0
KAD1 091821Z 35005KT 06/M05 A3035 RMK A01 T00571047  RH  047%=      5-min Rain = 0
KAD1 091822Z 01006KT 06/M05 A3035 RMK A01 T00561047  RH  048%=      5-min Rain = 0
KAD1 091823Z 02006KT 06/M05 A3035 RMK A01 T00561049  RH  047%=      5-min Rain = 0
KAD1 091824Z 01006KT 06/M05 A3035 RMK A01 T00551050  RH  047%=      5-min Rain = 0
KAD1 091825Z 02006KT 06/M05 A3035 RMK A01 T00551048  RH  047%=      5-min Rain = 0
KAD1 091826Z 03004KT 06/M05 A3035 RMK A01 T00561049  RH  047%=      5-min Rain = 0
KAD1 091827Z 01006KT 06/M05 A3035 RMK A01 T00571048  RH  047%=      5-min Rain = 0
KAD1 091828Z 02005KT 06/M05 A3035 RMK A01 T00581048  RH  046%=      5-min Rain = 0
KAD1 091829Z 01005KT 06/M05 A3035 RMK A01 T00571048  RH  047%=      5-min Rain = 0
KAD1 091830Z 01008KT 06/M05 A3035 RMK A01 T00591046  RH  047%=      5-min Rain = 0
KAD1 091831Z 36006KT 06/M05 A3035 RMK A01 T00591048  RH  046%=      5-min Rain = 0
KAD1 091832Z 00008KT 06/M05 A3035 RMK A01 T00591049  RH  046%=      5-min Rain = 0
KAD1 091833Z 36007KT 06/M05 A3035 RMK A01 T00581052  RH  045%=      5-min Rain = 0
KAD1 091834Z 00005KT 06/M05 A3035 RMK A01 T00581053  RH  045%=      5-min Rain = 0
KAD1 091835Z 36005KT 06/M05 A3035 RMK A01 T00581052  RH  045%=      5-min Rain = 0
KAD1 091836Z 35008KT 06/M05 A3035 RMK A01 T00591050  RH  045%=      5-min Rain = 0
KAD1 091837Z 34007KT 06/M05 A3035 RMK A01 T00591052  RH  045%=      5-min Rain = 0
KAD1 091838Z 35006KT 06/M05 A3034 RMK A01 T00581052  RH  045%=      5-min Rain = 0
KAD1 091839Z 01007KT 06/M05 A3034 RMK A01 T00591052  RH  045%=      5-min Rain = 0
KAD1 091840Z 02007KT 06/M05 A3034 RMK A01 T00591053  RH  044%=      5-min Rain = 0
KAD1 091841Z 00008KT 06/M05 A3034 RMK A01 T00601051  RH  045%=      5-min Rain = 0
KAD1 091842Z 34008KT 06/M05 A3034 RMK A01 T00611051  RH  045%=      5-min Rain = 0
KAD1 091843Z 34005KT 06/M05 A3034 RMK A01 T00611050  RH  045%=      5-min Rain = 0
KAD1 091844Z 02009KT 06/M05 A3034 RMK A01 T00601050  RH  045%=      5-min Rain = 0
KAD1 091845Z 01010KT 06/M05 A3034 RMK A01 T00601054  RH  044%=      5-min Rain = 0
KAD1 091846Z 01006KT 06/M06 A3034 RMK A01 T00581059  RH  043%=      5-min Rain = 0
KAD1 091847Z 01005KT 06/M06 A3034 RMK A01 T00581059  RH  043%=      5-min Rain = 0
KAD1 091848Z 01006KT 06/M06 A3034 RMK A01 T00591058  RH  043%=      5-min Rain = 0
KAD1 091849Z 00010KT 06/M05 A3034 RMK A01 T00621053  RH  044%=      5-min Rain = 0
KAD1 091850Z 02010KT 06/M06 A3034 RMK A01 T00631055  RH  043%=      5-min Rain = 0
KAD1 091851Z 02007KT 06/M06 A3034 RMK A01 T00631056  RH  042%=      5-min Rain = 0
KAD1 091852Z 04008KT 06/M06 A3034 RMK A01 T00611059  RH  042%=      5-min Rain = 0
KAD1 091853Z 02008KT 06/M06 A3034 RMK A01 T00611059  RH  042%=      5-min Rain = 0
KAD1 091854Z 02008KT 06/M06 A3034 RMK A01 T00631060  RH  041%=      5-min Rain = 0
KAD1 091855Z 01010KT 06/M06 A3034 RMK A01 T00641061  RH  040%=      5-min Rain = 0
KAD1 091856Z 01010KT 06/M06 A3034 RMK A01 T00631062  RH  040%=      5-min Rain = 0
KAD1 091857Z 02008KT 06/M06 A3034 RMK A01 T00631061  RH  040%=      5-min Rain = 0
KAD1 091858Z 03006KT 06/M06 A3034 RMK A01 T00631061  RH  040%=      5-min Rain = 0
KAD1 091859Z 01005KT 06/M06 A3034 RMK A01 T00601062  RH  041%=      5-min Rain = 0
KAD1 091900Z 35004KT 06/M06 A3033 RMK A01 T00611057  RH  043%=      5-min Rain = 0
KAD1 091901Z 02004KT 06/M06 A3033 RMK A01 T00611055  RH  043%=      5-min Rain = 0
KAD1 091902Z 02007KT 06/M06 A3033 RMK A01 T00621055  RH  043%=      5-min Rain = 0
KAD1 091903Z 02007KT 07/M05 A3033 RMK A01 T00651054  RH  042%=      5-min Rain = 0
KAD1 091904Z 01006KT 07/M06 A3033 RMK A01 T00651055  RH  042%=      5-min Rain = 0
KAD1 091905Z 02007KT 06/M06 A3033 RMK A01 T00631057  RH  042%=      5-min Rain = 0
KAD1 091906Z 03006KT 06/M06 A3033 RMK A01 T00631056  RH  042%=      5-min Rain = 0
KAD1 091907Z 03004KT 06/M05 A3033 RMK A01 T00641053  RH  043%=      5-min Rain = 0
KAD1 091908Z 02006KT 07/M05 A3033 RMK A01 T00661052  RH  042%=      5-min Rain = 0
KAD1 091909Z 03007KT 07/M06 A3033 RMK A01 T00661057  RH  041%=      5-min Rain = 0
KAD1 091910Z 02008KT 07/M06 A3033 RMK A01 T00651062  RH  040%=      5-min Rain = 0
KAD1 091911Z 03007KT 06/M06 A3033 RMK A01 T00631061  RH  041%=      5-min Rain = 0
KAD1 091912Z 02006KT 06/M06 A3033 RMK A01 T00641062  RH  040%=      5-min Rain = 0
KAD1 091913Z 00007KT 06/M06 A3033 RMK A01 T00641063  RH  040%=      5-min Rain = 0
KAD1 091914Z 35006KT 06/M06 A3033 RMK A01 T00641058  RH  042%=      5-min Rain = 0
KAD1 091915Z 35007KT 06/M06 A3033 RMK A01 T00631055  RH  042%=      5-min Rain = 0
KAD1 091916Z 36006KT 07/M06 A3033 RMK A01 T00651055  RH  042%=      5-min Rain = 0
KAD1 091917Z 00008KT 07/M06 A3033 RMK A01 T00681057  RH  040%=      5-min Rain = 0
KAD1 091918Z 36007KT 07/M07 A3033 RMK A01 T00691066  RH  038%=      5-min Rain = 0
KAD1 091919Z 01003KT 07/M07 A3033 RMK A01 T00661070  RH  037%=      5-min Rain = 0
KAD1 091920Z 02005KT 07/M07 A3033 RMK A01 T00651068  RH  038%=      5-min Rain = 0
KAD1 091921Z 02007KT 07/M07 A3033 RMK A01 T00671068  RH  037%=      5-min Rain = 0
KAD1 091922Z 03006KT 07/M06 A3033 RMK A01 T00681064  RH  038%=      5-min Rain = 0
KAD1 091923Z 03007KT 07/M06 A3033 RMK A01 T00711061  RH  039%=      5-min Rain = 0
KAD1 091924Z 05005KT 07/M07 A3033 RMK A01 T00701066  RH  037%=      5-min Rain = 0
KAD1 091925Z 03004KT 07/M07 A3033 RMK A01 T00671068  RH  037%=      5-min Rain = 0
KAD1 091926Z 04006KT 07/M07 A3033 RMK A01 T00681069  RH  037%=      5-min Rain = 0
KAD1 091927Z 04004KT 07/M07 A3033 RMK A01 T00701069  RH  036%=      5-min Rain = 0
KAD1 091928Z 01004KT 07/M07 A3033 RMK A01 T00701072  RH  036%=      5-min Rain = 0
KAD1 091929Z 01007KT 07/M07 A3033 RMK A01 T00701071  RH  036%=      5-min Rain = 0
KAD1 091930Z 00006KT 07/M08 A3033 RMK A01 T00691075  RH  035%=      5-min Rain = 0
KAD1 091931Z 36005KT 07/M07 A3033 RMK A01 T00681073  RH  036%=      5-min Rain = 0
KAD1 091932Z 01004KT 07/M07 A3033 RMK A01 T00681071  RH  036%=      5-min Rain = 0
KAD1 091933Z 02004KT 07/M07 A3033 RMK A01 T00661073  RH  036%=      5-min Rain = 0
KAD1 091934Z 03003KT 07/M07 A3033 RMK A01 T00661073  RH  036%=      5-min Rain = 0
KAD1 091935Z 04002KT 07/M07 A3033 RMK A01 T00671072  RH  036%=      5-min Rain = 0
KAD1 091936Z 02005KT 07/M07 A3033 RMK A01 T00701070  RH  036%=      5-min Rain = 0
KAD1 091937Z 03006KT 07/M07 A3033 RMK A01 T00721072  RH  035%=      5-min Rain = 0
KAD1 091938Z 04006KT 07/M08 A3033 RMK A01 T00731076  RH  034%=      5-min Rain = 0
KAD1 091939Z 05007KT 08/M07 A3033 RMK A01 T00751073  RH  034%=      5-min Rain = 0
KAD1 091940Z 04007KT 08/M07 A3033 RMK A01 T00791074  RH  033%=      5-min Rain = 0
KAD1 091941Z 03006KT 08/M08 A3033 RMK A01 T00771079  RH  032%=      5-min Rain = 0
KAD1 091942Z 03005KT 07/M08 A3033 RMK A01 T00741081  RH  032%=      5-min Rain = 0
KAD1 091943Z 03003KT 07/M08 A3033 RMK A01 T00721083  RH  032%=      5-min Rain = 0
KAD1 091944Z 03002KT 07/M08 A3033 RMK A01 T00711082  RH  033%=      5-min Rain = 0
KAD1 091945Z 02003KT 07/M08 A3033 RMK A01 T00731081  RH  033%=      5-min Rain = 0
KAD1 091946Z 01004KT 08/M09 A3033 RMK A01 T00751090  RH  030%=      5-min Rain = 0
KAD1 091947Z 05005KT 08/M09 A3033 RMK A01 T00751088  RH  030%=      5-min Rain = 0
KAD1 091948Z 06005KT 08/M08 A3032 RMK A01 T00751079  RH  033%=      5-min Rain = 0
KAD1 091949Z 02004KT 08/M08 A3032 RMK A01 T00751078  RH  033%=      5-min Rain = 0
KAD1 091950Z 03004KT 08/M08 A3032 RMK A01 T00761082  RH  032%=      5-min Rain = 0
KAD1 091951Z 08004KT 08/M08 A3032 RMK A01 T00761081  RH  032%=      5-min Rain = 0
KAD1 091952Z 06006KT 08/M08 A3032 RMK A01 T00771076  RH  033%=      5-min Rain = 0
KAD1 091953Z 05005KT 08/M08 A3032 RMK A01 T00781076  RH  033%=      5-min Rain = 0
KAD1 091954Z 04006KT 08/M08 A3032 RMK A01 T00781079  RH  032%=      5-min Rain = 0
KAD1 091955Z 04004KT 08/M09 A3032 RMK A01 T00771086  RH  030%=      5-min Rain = 0
KAD1 091956Z 03003KT 08/M09 A3032 RMK A01 T00771091  RH  029%=      5-min Rain = 0
KAD1 091957Z 04005KT 08/M09 A3032 RMK A01 T00761093  RH  029%=      5-min Rain = 0
KAD1 091958Z 04004KT 08/M09 A3032 RMK A01 T00771088  RH  030%=      5-min Rain = 0
KAD1 091959Z 07005KT 08/M09 A3032 RMK A01 T00761088  RH  030%=      5-min Rain = 0
KAD1 092000Z 08006KT 08/M09 A3032 RMK A01 T00761088  RH  030%=      5-min Rain = 0
KAD1 092001Z 06005KT 08/M09 A3032 RMK A01 T00761088  RH  030%=      5-min Rain = 0
KAD1 092002Z 08004KT 08/M09 A3032 RMK A01 T00781087  RH  030%=      5-min Rain = 0
KAD1 092003Z 09003KT 08/M08 A3032 RMK A01 T00791084  RH  031%=      5-min Rain = 0
KAD1 092004Z 12002KT 08/M09 A3032 RMK A01 T00771085  RH  031%=      5-min Rain = 0
KAD1 092005Z 05003KT 08/M09 A3031 RMK A01 T00771087  RH  030%=      5-min Rain = 0
KAD1 092006Z 01002KT 08/M10 A3031 RMK A01 T00781097  RH  028%=      5-min Rain = 0
KAD1 092007Z 10001KT 08/M10 A3031 RMK A01 T00781099  RH  027%=      5-min Rain = 0
KAD1 092008Z 13002KT 08/M09 A3031 RMK A01 T00791090  RH  029%=      5-min Rain = 0
KAD1 092009Z 01002KT 08/M09 A3031 RMK A01 T00811088  RH  029%=      5-min Rain = 0
KAD1 092010Z 01001KT 08/M09 A3031 RMK A01 T00801091  RH  029%=      5-min Rain = 0
KAD1 092011Z 03003KT 08/M09 A3031 RMK A01 T00791093  RH  028%=      5-min Rain = 0
KAD1 092012Z 05005KT 08/M09 A3031 RMK A01 T00791090  RH  029%=      5-min Rain = 0
KAD1 092013Z 06005KT 08/M09 A3032 RMK A01 T00801089  RH  029%=      5-min Rain = 0
KAD1 092014Z 05004KT 08/M09 A3032 RMK A01 T00811089  RH  029%=      5-min Rain = 0
KAD1 092015Z 04005KT 08/M09 A3032 RMK A01 T00821093  RH  028%=      5-min Rain = 0
KAD1 092016Z 05005KT 08/M10 A3032 RMK A01 T00821104  RH  026%=      5-min Rain = 0
KAD1 092017Z 05006KT 08/M11 A3032 RMK A01 T00811107  RH  025%=      5-min Rain = 0
KAD1 092018Z 06007KT 08/M11 A3032 RMK A01 T00831106  RH  025%=      5-min Rain = 0
KAD1 092019Z 05005KT 08/M10 A3032 RMK A01 T00841104  RH  025%=      5-min Rain = 0
KAD1 092020Z 05008KT 08/M10 A3032 RMK A01 T00831101  RH  026%=      5-min Rain = 0
KAD1 092021Z 05008KT 08/M10 A3032 RMK A01 T00821095  RH  027%=      5-min Rain = 0
KAD1 092022Z 05007KT 08/M10 A3032 RMK A01 T00811095  RH  028%=      5-min Rain = 0
KAD1 092023Z 05006KT 08/M10 A3032 RMK A01 T00801100  RH  027%=      5-min Rain = 0
KAD1 092024Z 03007KT 08/M10 A3032 RMK A01 T00811104  RH  026%=      5-min Rain = 0
KAD1 092025Z 04007KT 08/M11 A3032 RMK A01 T00831109  RH  024%=      5-min Rain = 0
KAD1 092026Z 05007KT 08/M11 A3032 RMK A01 T00831107  RH  025%=      5-min Rain = 0
KAD1 092027Z 03006KT 08/M10 A3032 RMK A01 T00801104  RH  026%=      5-min Rain = 0
KAD1 092028Z 02005KT 08/M11 A3032 RMK A01 T00811106  RH  025%=      5-min Rain = 0
KAD1 092029Z 02005KT 08/M11 A3032 RMK A01 T00811109  RH  025%=      5-min Rain = 0
KAD1 092030Z 01005KT 08/M11 A3032 RMK A01 T00801109  RH  025%=      5-min Rain = 0
KAD1 092031Z 36005KT 08/M11 A3032 RMK A01 T00811107  RH  025%=      5-min Rain = 0
KAD1 092032Z 00005KT 08/M11 A3032 RMK A01 T00811106  RH  025%=      5-min Rain = 0
KAD1 092033Z 07006KT 08/M10 A3032 RMK A01 T00801104  RH  026%=      5-min Rain = 0
KAD1 092034Z 06007KT 08/M10 A3032 RMK A01 T00821100  RH  027%=      5-min Rain = 0
KAD1 092035Z 05007KT 08/M10 A3032 RMK A01 T00841098  RH  026%=      5-min Rain = 0
KAD1 092036Z 04007KT 08/M10 A3032 RMK A01 T00821104  RH  025%=      5-min Rain = 0
KAD1 092037Z 05006KT 08/M11 A3032 RMK A01 T00821106  RH  025%=      5-min Rain = 0
KAD1 092038Z 05006KT 08/M10 A3032 RMK A01 T00831102  RH  026%=      5-min Rain = 0
KAD1 092039Z 04004KT 08/M10 A3032 RMK A01 T00841100  RH  026%=      5-min Rain = 0
KAD1 092040Z 05005KT 08/M10 A3032 RMK A01 T00841095  RH  027%=      5-min Rain = 0
KAD1 092041Z 05004KT 08/M09 A3032 RMK A01 T00841093  RH  028%=      5-min Rain = 0
KAD1 092042Z 06002KT 08/M09 A3032 RMK A01 T00841093  RH  027%=      5-min Rain = 0
KAD1 092043Z 06006KT 08/M10 A3032 RMK A01 T00841096  RH  027%=      5-min Rain = 0
KAD1 092044Z 03007KT 09/M10 A3032 RMK A01 T00851100  RH  026%=      5-min Rain = 0
KAD1 092045Z 02006KT 09/M10 A3032 RMK A01 T00851104  RH  025%=      5-min Rain = 0
KAD1 092046Z 02006KT 08/M11 A3032 RMK A01 T00821105  RH  025%=      5-min Rain = 0
KAD1 092047Z 01006KT 08/M10 A3032 RMK A01 T00811103  RH  026%=      5-min Rain = 0
KAD1 092048Z 35006KT 08/M10 A3032 RMK A01 T00821101  RH  026%=      5-min Rain = 0
KAD1 092049Z 36005KT 08/M10 A3032 RMK A01 T00821102  RH  026%=      5-min Rain = 0
KAD1 092050Z 03006KT 08/M10 A3032 RMK A01 T00811102  RH  026%=      5-min Rain = 0
KAD1 092051Z 06006KT 08/M11 A3032 RMK A01 T00831106  RH  025%=      5-min Rain = 0
KAD1 092052Z 07008KT 09/M12 A3032 RMK A01 T00851116  RH  023%=      5-min Rain = 0
KAD1 092053Z 07007KT 09/M11 A3031 RMK A01 T00851114  RH  023%=      5-min Rain = 0
KAD1 092054Z 06008KT 09/M11 A3031 RMK A01 T00861106  RH  025%=      5-min Rain = 0
KAD1 092055Z 05008KT 09/M10 A3031 RMK A01 T00861104  RH  025%=      5-min Rain = 0
KAD1 092056Z 04006KT 09/M11 A3031 RMK A01 T00871108  RH  024%=      5-min Rain = 0
KAD1 092057Z 07004KT 09/M11 A3031 RMK A01 T00881108  RH  024%=      5-min Rain = 0
KAD1 092058Z 07006KT 09/M11 A3031 RMK A01 T00881112  RH  023%=      5-min Rain = 0
KAD1 092059Z 06007KT 09/M12 A3031 RMK A01 T00871118  RH  022%=      5-min Rain = 0
KAD1 092100Z 04007KT 09/M12 A3031 RMK A01 T00861118  RH  022%=      5-min Rain = 0
KAD1 092101Z 04006KT 09/M12 A3031 RMK A01 T00861118  RH  022%=      5-min Rain = 0
KAD1 092102Z 03006KT 09/M12 A3031 RMK A01 T00851118  RH  022%=      5-min Rain = 0
KAD1 092103Z 04008KT 09/M12 A3031 RMK A01 T00851118  RH  022%=      5-min Rain = 0
KAD1 092104Z 04007KT 09/M12 A3031 RMK A01 T00871120  RH  022%=      5-min Rain = 0
KAD1 092105Z 02006KT 09/M12 A3031 RMK A01 T00871122  RH  021%=      5-min Rain = 0
KAD1 092106Z 03006KT 09/M12 A3032 RMK A01 T00851123  RH  021%=      5-min Rain = 0
KAD1 092107Z 04006KT 09/M12 A3032 RMK A01 T00851116  RH  023%=      5-min Rain = 0
KAD1 092108Z 04005KT 09/M11 A3032 RMK A01 T00851110  RH  024%=      5-min Rain = 0
KAD1 092109Z 04006KT 08/M11 A3032 RMK A01 T00841109  RH  024%=      5-min Rain = 0
KAD1 092110Z 03006KT 08/M11 A3031 RMK A01 T00841109  RH  024%=      5-min Rain = 0
KAD1 092111Z 01004KT 08/M11 A3032 RMK A01 T00841110  RH  024%=      5-min Rain = 0
KAD1 092112Z 02004KT 08/M11 A3031 RMK A01 T00831111  RH  024%=      5-min Rain = 0
KAD1 092113Z 04006KT 08/M11 A3032 RMK A01 T00841110  RH  024%=      5-min Rain = 0
KAD1 092114Z 03004KT 08/M11 A3032 RMK A01 T00841111  RH  024%=      5-min Rain = 0
KAD1 092115Z 05006KT 09/M11 A3032 RMK A01 T00851108  RH  024%=      5-min Rain = 0
KAD1 092116Z 07007KT 09/M10 A3032 RMK A01 T00871104  RH  025%=      5-min Rain = 0
KAD1 092117Z 07006KT 09/M11 A3032 RMK A01 T00871105  RH  025%=      5-min Rain = 0
KAD1 092118Z 05006KT 09/M10 A3032 RMK A01 T00871104  RH  025%=      5-min Rain = 0
KAD1 092119Z 06007KT 09/M10 A3032 RMK A01 T00871100  RH  025%=      5-min Rain = 0
KAD1 092120Z 06008KT 09/M10 A3031 RMK A01 T00891099  RH  025%=      5-min Rain = 0
KAD1 092121Z 06006KT 09/M10 A3031 RMK A01 T00891101  RH  025%=      5-min Rain = 0
KAD1 092122Z 07007KT 09/M10 A3031 RMK A01 T00871103  RH  025%=      5-min Rain = 0
KAD1 092123Z 06007KT 09/M10 A3031 RMK A01 T00881096  RH  026%=      5-min Rain = 0
KAD1 092124Z 04007KT 09/M09 A3031 RMK A01 T00871094  RH  027%=      5-min Rain = 0
KAD1 092125Z 04006KT 09/M10 A3031 RMK A01 T00871096  RH  026%=      5-min Rain = 0
KAD1 092126Z 05006KT 09/M10 A3031 RMK A01 T00861098  RH  026%=      5-min Rain = 0
KAD1 092127Z 07006KT 09/M10 A3031 RMK A01 T00861102  RH  025%=      5-min Rain = 0
KAD1 092128Z 07005KT 09/M10 A3031 RMK A01 T00861099  RH  026%=      5-min Rain = 0
KAD1 092129Z 05006KT 09/M10 A3031 RMK A01 T00851095  RH  027%=      5-min Rain = 0
KAD1 092130Z 03006KT 09/M09 A3031 RMK A01 T00851094  RH  027%=      5-min Rain = 0
KAD1 092131Z 03005KT 08/M09 A3031 RMK A01 T00841094  RH  027%=      5-min Rain = 0
KAD1 092132Z 07006KT 08/M09 A3031 RMK A01 T00831091  RH  028%=      5-min Rain = 0
KAD1 092133Z 07005KT 08/M09 A3031 RMK A01 T00831089  RH  029%=      5-min Rain = 0
KAD1 092134Z 06005KT 08/M09 A3031 RMK A01 T00821089  RH  029%=      5-min Rain = 0
KAD1 092135Z 07003KT 08/M09 A3031 RMK A01 T00831090  RH  028%=      5-min Rain = 0
KAD1 092136Z 06002KT 08/M09 A3031 RMK A01 T00821092  RH  028%=      5-min Rain = 0
KAD1 092137Z 05002KT 08/M09 A3031 RMK A01 T00831092  RH  028%=      5-min Rain = 0
KAD1 092138Z 06006KT 08/M09 A3031 RMK A01 T00841090  RH  028%=      5-min Rain = 0
KAD1 092139Z 05005KT 09/M08 A3031 RMK A01 T00861083  RH  029%=      5-min Rain = 0
KAD1 092140Z 03005KT 09/M08 A3031 RMK A01 T00861082  RH  029%=      5-min Rain = 0
KAD1 092141Z 02005KT 09/M08 A3031 RMK A01 T00861084  RH  029%=      5-min Rain = 0
KAD1 092142Z 03003KT 08/M09 A3031 RMK A01 T00841086  RH  029%=      5-min Rain = 0
KAD1 092143Z 05003KT 08/M09 A3031 RMK A01 T00831086  RH  029%=      5-min Rain = 0
KAD1 092144Z 07005KT 08/M08 A3031 RMK A01 T00841084  RH  030%=      5-min Rain = 0
KAD1 092145Z 06007KT 09/M08 A3031 RMK A01 T00861081  RH  030%=      5-min Rain = 0
KAD1 092146Z 06006KT 09/M08 A3031 RMK A01 T00871081  RH  030%=      5-min Rain = 0
KAD1 092147Z 06004KT 09/M08 A3031 RMK A01 T00861082  RH  029%=      5-min Rain = 0
KAD1 092148Z 07005KT 09/M08 A3031 RMK A01 T00851083  RH  030%=      5-min Rain = 0
KAD1 092149Z 08004KT 09/M08 A3031 RMK A01 T00851081  RH  030%=      5-min Rain = 0
KAD1 092150Z 07004KT 08/M08 A3031 RMK A01 T00841082  RH  030%=      5-min Rain = 0
KAD1 092151Z 06006KT 09/M08 A3031 RMK A01 T00851079  RH  030%=      5-min Rain = 0
KAD1 092152Z 06005KT 09/M08 A3031 RMK A01 T00861078  RH  031%=      5-min Rain = 0
KAD1 092153Z 02003KT 09/M08 A3031 RMK A01 T00851080  RH  030%=      5-min Rain = 0
KAD1 092154Z 05002KT 09/M08 A3031 RMK A01 T00851081  RH  030%=      5-min Rain = 0
KAD1 092155Z 05001KT 09/M08 A3031 RMK A01 T00851080  RH  030%=      5-min Rain = 0
KAD1 092156Z 04003KT 09/M08 A3031 RMK A01 T00851080  RH  030%=      5-min Rain = 0
KAD1 092157Z 05005KT 09/M08 A3031 RMK A01 T00851081  RH  030%=      5-min Rain = 0
KAD1 092158Z 06007KT 09/M08 A3031 RMK A01 T00851080  RH  030%=      5-min Rain = 0
KAD1 092159Z 06005KT 09/M08 A3031 RMK A01 T00851079  RH  030%=      5-min Rain = 0
KAD1 092200Z 05006KT 09/M08 A3031 RMK A01 T00861078  RH  030%=      5-min Rain = 0
KAD1 092201Z 07004KT 09/M08 A3031 RMK A01 T00861079  RH  030%=      5-min Rain = 0
KAD1 092202Z 06005KT 09/M08 A3031 RMK A01 T00851079  RH  031%=      5-min Rain = 0
KAD1 092203Z 06004KT 09/M08 A3031 RMK A01 T00851077  RH  031%=      5-min Rain = 0
KAD1 092204Z 05006KT 09/M08 A3031 RMK A01 T00861076  RH  031%=      5-min Rain = 0
KAD1 092205Z 05005KT 09/M08 A3031 RMK A01 T00871077  RH  031%=      5-min Rain = 0
KAD1 092206Z 06005KT 09/M08 A3031 RMK A01 T00871077  RH  031%=      5-min Rain = 0
KAD1 092207Z 05006KT 09/M08 A3031 RMK A01 T00861079  RH  030%=      5-min Rain = 0
KAD1 092208Z 04004KT 09/M08 A3031 RMK A01 T00851079  RH  031%=      5-min Rain = 0
KAD1 092209Z 08003KT 08/M08 A3031 RMK A01 T00841078  RH  031%=      5-min Rain = 0
KAD1 092210Z 08004KT 09/M08 A3031 RMK A01 T00851077  RH  031%=      5-min Rain = 0
KAD1 092211Z 08004KT 09/M08 A3031 RMK A01 T00851076  RH  031%=      5-min Rain = 0
KAD1 092212Z 05003KT 09/M08 A3031 RMK A01 T00851076  RH  031%=      5-min Rain = 0
KAD1 092213Z 03004KT 09/M08 A3031 RMK A01 T00851077  RH  031%=      5-min Rain = 0
KAD1 092214Z 02004KT 09/M08 A3031 RMK A01 T00851078  RH  031%=      5-min Rain = 0
KAD1 092215Z 02005KT 08/M08 A3031 RMK A01 T00841078  RH  031%=      5-min Rain = 0
KAD1 092216Z 01005KT 09/M08 A3031 RMK A01 T00851077  RH  031%=      5-min Rain = 0
KAD1 092217Z 01004KT 08/M08 A3031 RMK A01 T00841078  RH  031%=      5-min Rain = 0
KAD1 092218Z 02003KT 08/M08 A3031 RMK A01 T00831078  RH  031%=      5-min Rain = 0
KAD1 092219Z 04005KT 08/M08 A3031 RMK A01 T00831077  RH  031%=      5-min Rain = 0
KAD1 092220Z 04006KT 08/M08 A3031 RMK A01 T00831077  RH  031%=      5-min Rain = 0
KAD1 092221Z 06006KT 08/M08 A3031 RMK A01 T00821077  RH  032%=      5-min Rain = 0
KAD1 092222Z 07005KT 08/M08 A3031 RMK A01 T00821077  RH  032%=      5-min Rain = 0
KAD1 092223Z 07005KT 08/M08 A3031 RMK A01 T00821078  RH  031%=      5-min Rain = 0
KAD1 092224Z 06004KT 08/M08 A3031 RMK A01 T00821077  RH  031%=      5-min Rain = 0
KAD1 092225Z 06003KT 08/M08 A3031 RMK A01 T00831077  RH  031%=      5-min Rain = 0
KAD1 092226Z 06003KT 08/M08 A3031 RMK A01 T00821077  RH  031%=      5-min Rain = 0
KAD1 092227Z 05001KT 08/M08 A3031 RMK A01 T00821079  RH  031%=      5-min Rain = 0
KAD1 092228Z 06001KT 08/M08 A3031 RMK A01 T00821079  RH  031%=      5-min Rain = 0
KAD1 092229Z 06002KT 08/M08 A3031 RMK A01 T00831079  RH  031%=      5-min Rain = 0
KAD1 092230Z 08004KT 08/M08 A3031 RMK A01 T00841077  RH  031%=      5-min Rain = 0
KAD1 092231Z 07003KT 08/M08 A3031 RMK A01 T00841076  RH  031%=      5-min Rain = 0
KAD1 092232Z 07003KT 08/M08 A3031 RMK A01 T00841078  RH  031%=      5-min Rain = 0
KAD1 092233Z 07003KT 08/M08 A3031 RMK A01 T00831077  RH  031%=      5-min Rain = 0
KAD1 092234Z 07003KT 08/M07 A3031 RMK A01 T00841074  RH  032%=      5-min Rain = 0
KAD1 092235Z 06004KT 09/M08 A3031 RMK A01 T00851075  RH  031%=      5-min Rain = 0
KAD1 092236Z 06006KT 08/M08 A3031 RMK A01 T00841077  RH  031%=      5-min Rain = 0
KAD1 092237Z 06006KT 08/M08 A3031 RMK A01 T00841078  RH  031%=      5-min Rain = 0
KAD1 092238Z 06006KT 08/M08 A3031 RMK A01 T00831078  RH  031%=      5-min Rain = 0
KAD1 092239Z 07007KT 08/M08 A3031 RMK A01 T00821077  RH  031%=      5-min Rain = 0
KAD1 092240Z 07006KT 08/M08 A3031 RMK A01 T00821077  RH  032%=      5-min Rain = 0
KAD1 092241Z 07006KT 08/M08 A3031 RMK A01 T00811077  RH  032%=      5-min Rain = 0
KAD1 092242Z 06006KT 08/M08 A3031 RMK A01 T00811076  RH  032%=      5-min Rain = 0
KAD1 092243Z 06006KT 08/M08 A3032 RMK A01 T00811075  RH  032%=      5-min Rain = 0
KAD1 092244Z 06007KT 08/M08 A3032 RMK A01 T00801075  RH  032%=      5-min Rain = 0
KAD1 092245Z 06006KT 08/M08 A3032 RMK A01 T00801076  RH  032%=      5-min Rain = 0
KAD1 092246Z 06006KT 08/M07 A3032 RMK A01 T00801074  RH  033%=      5-min Rain = 0
KAD1 092247Z 07005KT 08/M07 A3032 RMK A01 T00791074  RH  033%=      5-min Rain = 0
KAD1 092248Z 07005KT 08/M08 A3032 RMK A01 T00791075  RH  033%=      5-min Rain = 0
KAD1 092249Z 07004KT 08/M08 A3032 RMK A01 T00791075  RH  033%=      5-min Rain = 0
KAD1 092250Z 07003KT 08/M08 A3032 RMK A01 T00791076  RH  033%=      5-min Rain = 0
KAD1 092251Z 07003KT 08/M08 A3032 RMK A01 T00791076  RH  033%=      5-min Rain = 0
KAD1 092252Z 08006KT 08/M08 A3032 RMK A01 T00791075  RH  033%=      5-min Rain = 0
KAD1 092253Z 08005KT 08/M08 A3032 RMK A01 T00781076  RH  033%=      5-min Rain = 0
KAD1 092254Z 08005KT 08/M08 A3032 RMK A01 T00781075  RH  033%=      5-min Rain = 0
KAD1 092255Z 08005KT 08/M07 A3032 RMK A01 T00781074  RH  033%=      5-min Rain = 0
KAD1 092256Z 08005KT 08/M07 A3032 RMK A01 T00771074  RH  034%=      5-min Rain = 0
KAD1 092257Z 08005KT 08/M07 A3032 RMK A01 T00761074  RH  034%=      5-min Rain = 0
KAD1 092258Z 07004KT 08/M07 A3032 RMK A01 T00761074  RH  034%=      5-min Rain = 0
KAD1 092259Z 06004KT 08/M07 A3032 RMK A01 T00751074  RH  034%=      5-min Rain = 0
KAD1 092300Z 08004KT 07/M07 A3032 RMK A01 T00741074  RH  034%=      5-min Rain = 0
KAD1 092301Z 08005KT 07/M07 A3032 RMK A01 T00741074  RH  034%=      5-min Rain = 0
KAD1 092302Z 08005KT 07/M07 A3032 RMK A01 T00731074  RH  034%=      5-min Rain = 0
KAD1 092303Z 08005KT 07/M07 A3032 RMK A01 T00721074  RH  035%=      5-min Rain = 0
KAD1 092304Z 08005KT 07/M07 A3032 RMK A01 T00711073  RH  035%=      5-min Rain = 0
KAD1 092305Z 09005KT 07/M07 A3032 RMK A01 T00701073  RH  035%=      5-min Rain = 0
KAD1 092306Z 08005KT 07/M07 A3032 RMK A01 T00701072  RH  036%=      5-min Rain = 0
KAD1 092307Z 08005KT 07/M07 A3032 RMK A01 T00691071  RH  036%=      5-min Rain = 0
KAD1 092308Z 09006KT 07/M07 A3032 RMK A01 T00691070  RH  036%=      5-min Rain = 0
KAD1 092309Z 09006KT 07/M07 A3032 RMK A01 T00681069  RH  037%=      5-min Rain = 0
KAD1 092310Z 08006KT 07/M07 A3032 RMK A01 T00681069  RH  037%=      5-min Rain = 0
KAD1 092311Z 09006KT 07/M07 A3032 RMK A01 T00681068  RH  037%=      5-min Rain = 0
KAD1 092312Z 09006KT 07/M07 A3032 RMK A01 T00671069  RH  037%=      5-min Rain = 0
KAD1 092313Z 09005KT 07/M07 A3032 RMK A01 T00661068  RH  038%=      5-min Rain = 0
KAD1 092314Z 09005KT 06/M07 A3032 RMK A01 T00641069  RH  038%=      5-min Rain = 0
KAD1 092315Z 08005KT 06/M07 A3032 RMK A01 T00631069  RH  038%=      5-min Rain = 0
KAD1 092316Z 08005KT 06/M07 A3032 RMK A01 T00621069  RH  038%=      5-min Rain = 0
KAD1 092317Z 08005KT 06/M07 A3033 RMK A01 T00611069  RH  039%=      5-min Rain = 0
KAD1 092318Z 08005KT 06/M07 A3033 RMK A01 T00591069  RH  039%=      5-min Rain = 0
KAD1 092319Z 08005KT 06/M07 A3033 RMK A01 T00581070  RH  039%=      5-min Rain = 0
KAD1 092320Z 08005KT 06/M07 A3033 RMK A01 T00571070  RH  040%=      5-min Rain = 0
KAD1 092321Z 08005KT 06/M07 A3033 RMK A01 T00571070  RH  040%=      5-min Rain = 0
KAD1 092322Z 08005KT 06/M07 A3033 RMK A01 T00571070  RH  040%=      5-min Rain = 0
KAD1 092323Z 08005KT 06/M07 A3033 RMK A01 T00561070  RH  040%=      5-min Rain = 0
KAD1 092324Z 08005KT 06/M07 A3033 RMK A01 T00561071  RH  040%=      5-min Rain = 0
KAD1 092325Z 08005KT 06/M07 A3033 RMK A01 T00551071  RH  040%=      5-min Rain = 0
KAD1 092326Z 08006KT 06/M07 A3033 RMK A01 T00551070  RH  040%=      5-min Rain = 0
KAD1 092327Z 08005KT 06/M07 A3033 RMK A01 T00551071  RH  040%=      5-min Rain = 0
KAD1 092328Z 08005KT 06/M07 A3033 RMK A01 T00551072  RH  040%=      5-min Rain = 0
KAD1 092329Z 09005KT 06/M07 A3033 RMK A01 T00561071  RH  040%=      5-min Rain = 0
KAD1 092330Z 09006KT 06/M07 A3033 RMK A01 T00551072  RH  039%=      5-min Rain = 0
KAD1 092331Z 08005KT 05/M07 A3033 RMK A01 T00531073  RH  040%=      5-min Rain = 0
KAD1 092332Z 08006KT 05/M07 A3033 RMK A01 T00511073  RH  040%=      5-min Rain = 0
KAD1 092333Z 08006KT 05/M07 A3033 RMK A01 T00491073  RH  041%=      5-min Rain = 0
KAD1 092334Z 08006KT 05/M07 A3033 RMK A01 T00481073  RH  041%=      5-min Rain = 0
KAD1 092335Z 07005KT 05/M07 A3033 RMK A01 T00481073  RH  041%=      5-min Rain = 0
KAD1 092336Z 07006KT 05/M07 A3033 RMK A01 T00481072  RH  041%=      5-min Rain = 0
KAD1 092337Z 07005KT 05/M07 A3033 RMK A01 T00481073  RH  041%=      5-min Rain = 0
KAD1 092338Z 08006KT 05/M07 A3033 RMK A01 T00481074  RH  041%=      5-min Rain = 0
KAD1 092339Z 08006KT 05/M07 A3033 RMK A01 T00491073  RH  041%=      5-min Rain = 0
KAD1 092340Z 08005KT 05/M07 A3033 RMK A01 T00491073  RH  041%=      5-min Rain = 0
KAD1 092341Z 08005KT 05/M07 A3033 RMK A01 T00491073  RH  041%=      5-min Rain = 0
KAD1 092342Z 08005KT 05/M07 A3033 RMK A01 T00491074  RH  041%=      5-min Rain = 0
KAD1 092343Z 08005KT 05/M08 A3033 RMK A01 T00481075  RH  041%=      5-min Rain = 0
KAD1 092344Z 08005KT 05/M08 A3033 RMK A01 T00461075  RH  041%=      5-min Rain = 0
KAD1 092345Z 08005KT 05/M08 A3033 RMK A01 T00451075  RH  042%=      5-min Rain = 0
KAD1 092346Z 08005KT 05/M07 A3033 RMK A01 T00451074  RH  042%=      5-min Rain = 0
KAD1 092347Z 08004KT 04/M07 A3033 RMK A01 T00441074  RH  042%=      5-min Rain = 0
KAD1 092348Z 08004KT 04/M07 A3033 RMK A01 T00441074  RH  042%=      5-min Rain = 0
KAD1 092349Z 08005KT 04/M07 A3033 RMK A01 T00441073  RH  042%=      5-min Rain = 0
KAD1 092350Z 08004KT 04/M07 A3033 RMK A01 T00431074  RH  042%=      5-min Rain = 0
KAD1 092351Z 08004KT 04/M07 A3033 RMK A01 T00421074  RH  042%=      5-min Rain = 0
KAD1 092352Z 08005KT 04/M07 A3033 RMK A01 T00421074  RH  042%=      5-min Rain = 0
KAD1 092353Z 08005KT 04/M07 A3033 RMK A01 T00421074  RH  042%=      5-min Rain = 0
KAD1 092354Z 08004KT 04/M08 A3033 RMK A01 T00421075  RH  042%=      5-min Rain = 0
KAD1 092355Z 08004KT 04/M08 A3033 RMK A01 T00421075  RH  042%=      5-min Rain = 0
KAD1 092356Z 08004KT 04/M08 A3033 RMK A01 T00421075  RH  042%=      5-min Rain = 0
KAD1 092357Z 09003KT 04/M08 A3033 RMK A01 T00411076  RH  042%=      5-min Rain = 0
KAD1 092358Z 08004KT 04/M08 A3033 RMK A01 T00401076  RH  043%=      5-min Rain = 0
KAD1 092359Z 08004KT 04/M08 A3034 RMK A01 T00391076  RH  043%=      5-min Rain = 0
KAD1 100000Z 08004KT 04/M08 A3034 RMK A01 T00381076  RH  043%=      5-min Rain = 0
KAD1 100001Z 08004KT 04/M08 A3034 RMK A01 T00381077  RH  043%=      5-min Rain = 0
KAD1 100002Z 08004KT 04/M08 A3034 RMK A01 T00381077  RH  043%=      5-min Rain = 0
KAD1 100003Z 08004KT 04/M08 A3034 RMK A01 T00381077  RH  043%=      5-min Rain = 0
KAD1 100004Z 08004KT 04/M08 A3034 RMK A01 T00381077  RH  043%=      5-min Rain = 0
KAD1 100005Z 08003KT 04/M08 A3034 RMK A01 T00371078  RH  043%=      5-min Rain = 0
KAD1 100006Z 08003KT 04/M08 A3034 RMK A01 T00361078  RH  043%=      5-min Rain = 0
KAD1 100007Z 09003KT 04/M08 A3034 RMK A01 T00361078  RH  043%=      5-min Rain = 0
KAD1 100008Z 09003KT 04/M08 A3034 RMK A01 T00351078  RH  043%=      5-min Rain = 0
KAD1 100009Z 09002KT 04/M08 A3034 RMK A01 T00351078  RH  043%=      5-min Rain = 0
KAD1 100010Z 09003KT 03/M08 A3034 RMK A01 T00341078  RH  043%=      5-min Rain = 0
KAD1 100011Z 09003KT 03/M08 A3034 RMK A01 T00341078  RH  044%=      5-min Rain = 0
KAD1 100012Z 09003KT 03/M08 A3034 RMK A01 T00341077  RH  044%=      5-min Rain = 0
KAD1 100013Z 09003KT 03/M08 A3034 RMK A01 T00341078  RH  044%=      5-min Rain = 0
KAD1 100014Z 09003KT 03/M08 A3034 RMK A01 T00341078  RH  044%=      5-min Rain = 0
KAD1 100015Z 09003KT 03/M08 A3035 RMK A01 T00341079  RH  043%=      5-min Rain = 0
KAD1 100016Z 09003KT 03/M08 A3035 RMK A01 T00341079  RH  043%=      5-min Rain = 0
KAD1 100017Z 09003KT 03/M08 A3035 RMK A01 T00341079  RH  043%=      5-min Rain = 0
KAD1 100018Z 09003KT 03/M08 A3035 RMK A01 T00341079  RH  043%=      5-min Rain = 0
KAD1 100019Z 09003KT 03/M08 A3035 RMK A01 T00341079  RH  043%=      5-min Rain = 0
KAD1 100020Z 09003KT 03/M08 A3035 RMK A01 T00341078  RH  044%=      5-min Rain = 0
KAD1 100021Z 10003KT 03/M08 A3035 RMK A01 T00341079  RH  043%=      5-min Rain = 0
KAD1 100022Z 10003KT 04/M08 A3035 RMK A01 T00351079  RH  043%=      5-min Rain = 0
KAD1 100023Z 10003KT 04/M08 A3035 RMK A01 T00361079  RH  043%=      5-min Rain = 0
KAD1 100024Z 09003KT 04/M08 A3035 RMK A01 T00371079  RH  043%=      5-min Rain = 0
KAD1 100025Z 10003KT 04/M08 A3035 RMK A01 T00371080  RH  042%=      5-min Rain = 0
KAD1 100026Z 10003KT 04/M08 A3035 RMK A01 T00371080  RH  042%=      5-min Rain = 0
KAD1 100027Z 11003KT 04/M08 A3035 RMK A01 T00371080  RH  042%=      5-min Rain = 0
KAD1 100028Z 11003KT 04/M08 A3035 RMK A01 T00371080  RH  042%=      5-min Rain = 0
KAD1 100029Z 11003KT 04/M08 A3035 RMK A01 T00381080  RH  042%=      5-min Rain = 0
KAD1 100030Z 10003KT 04/M08 A3035 RMK A01 T00381079  RH  042%=      5-min Rain = 0
KAD1 100031Z 10003KT 04/M08 A3035 RMK A01 T00381079  RH  042%=      5-min Rain = 0
KAD1 100032Z 10003KT 04/M08 A3036 RMK A01 T00381080  RH  042%=      5-min Rain = 0
KAD1 100033Z 10003KT 04/M08 A3036 RMK A01 T00361081  RH  042%=      5-min Rain = 0
KAD1 100034Z 10002KT 03/M08 A3036 RMK A01 T00341081  RH  043%=      5-min Rain = 0
KAD1 100035Z 11002KT 03/M08 A3036 RMK A01 T00331080  RH  043%=      5-min Rain = 0
KAD1 100036Z 11002KT 03/M08 A3036 RMK A01 T00341081  RH  043%=      5-min Rain = 0
KAD1 100037Z 12002KT 03/M08 A3036 RMK A01 T00311082  RH  043%=      5-min Rain = 0
KAD1 100038Z 13002KT 03/M08 A3036 RMK A01 T00321080  RH  044%=      5-min Rain = 0
KAD1 100039Z 13002KT 03/M08 A3036 RMK A01 T00331080  RH  044%=      5-min Rain = 0
KAD1 100040Z 13002KT 03/M08 A3036 RMK A01 T00341079  RH  043%=      5-min Rain = 0
KAD1 100041Z 13002KT 04/M08 A3036 RMK A01 T00371078  RH  043%=      5-min Rain = 0
KAD1 100042Z 13002KT 04/M08 A3036 RMK A01 T00391077  RH  042%=      5-min Rain = 0
KAD1 100043Z 13002KT 04/M08 A3036 RMK A01 T00411078  RH  042%=      5-min Rain = 0
KAD1 100044Z 12002KT 04/M08 A3036 RMK A01 T00411078  RH  041%=      5-min Rain = 0
KAD1 100045Z 12003KT 04/M08 A3036 RMK A01 T00421079  RH  041%=      5-min Rain = 0
KAD1 100046Z 11002KT 04/M08 A3036 RMK A01 T00421079  RH  041%=      5-min Rain = 0
KAD1 100047Z 11003KT 04/M08 A3036 RMK A01 T00421079  RH  041%=      5-min Rain = 0
KAD1 100048Z 11003KT 04/M08 A3036 RMK A01 T00421079  RH  041%=      5-min Rain = 0
KAD1 100049Z 11003KT 04/M08 A3036 RMK A01 T00421079  RH  041%=      5-min Rain = 0
KAD1 100050Z 10003KT 04/M08 A3036 RMK A01 T00421079  RH  041%=      5-min Rain = 0
KAD1 100051Z 10003KT 04/M08 A3036 RMK A01 T00421079  RH  041%=      5-min Rain = 0
KAD1 100052Z 09003KT 04/M08 A3036 RMK A01 T00421079  RH  041%=      5-min Rain = 0
KAD1 100053Z 08003KT 04/M08 A3036 RMK A01 T00421079  RH  041%=      5-min Rain = 0
KAD1 100054Z 07003KT 04/M08 A3036 RMK A01 T00411080  RH  041%=      5-min Rain = 0
KAD1 100055Z 07003KT 04/M08 A3036 RMK A01 T00411080  RH  041%=      5-min Rain = 0
KAD1 100056Z 06003KT 04/M08 A3036 RMK A01 T00401079  RH  041%=      5-min Rain = 0
KAD1 100057Z 06003KT 04/M08 A3036 RMK A01 T00401079  RH  041%=      5-min Rain = 0
KAD1 100058Z 06004KT 04/M08 A3036 RMK A01 T00401079  RH  041%=      5-min Rain = 0
KAD1 100059Z 06003KT 04/M08 A3036 RMK A01 T00401079  RH  041%=      5-min Rain = 0
KAD1 100100Z 06004KT 04/M08 A3036 RMK A01 T00411079  RH  041%=      5-min Rain = 0
KAD1 100101Z 06004KT 04/M08 A3036 RMK A01 T00411079  RH  041%=      5-min Rain = 0
KAD1 100102Z 06004KT 04/M08 A3036 RMK A01 T00411079  RH  041%=      5-min Rain = 0
KAD1 100103Z 06004KT 04/M08 A3036 RMK A01 T00411079  RH  041%=      5-min Rain = 0
KAD1 100104Z 06004KT 04/M08 A3036 RMK A01 T00411079  RH  041%=      5-min Rain = 0
KAD1 100105Z 06004KT 04/M08 A3036 RMK A01 T00411079  RH  041%=      5-min Rain = 0
KAD1 100106Z 06004KT 04/M08 A3036 RMK A01 T00421079  RH  041%=      5-min Rain = 0
KAD1 100107Z 05004KT 04/M08 A3036 RMK A01 T00421080  RH  041%=      5-min Rain = 0
KAD1 100108Z 05004KT 04/M08 A3036 RMK A01 T00411080  RH  041%=      5-min Rain = 0
KAD1 100109Z 05004KT 04/M08 A3036 RMK A01 T00411081  RH  041%=      5-min Rain = 0
KAD1 100110Z 05004KT 04/M08 A3036 RMK A01 T00411081  RH  041%=      5-min Rain = 0
KAD1 100111Z 06004KT 04/M08 A3036 RMK A01 T00411081  RH  041%=      5-min Rain = 0
KAD1 100112Z 06004KT 04/M08 A3036 RMK A01 T00411081  RH  041%=      5-min Rain = 0
KAD1 100113Z 06004KT 04/M08 A3036 RMK A01 T00401082  RH  040%=      5-min Rain = 0
KAD1 100114Z 06004KT 04/M08 A3036 RMK A01 T00411082  RH  040%=      5-min Rain = 0
KAD1 100115Z 06005KT 04/M08 A3036 RMK A01 T00411082  RH  040%=      5-min Rain = 0
KAD1 100116Z 07005KT 04/M08 A3036 RMK A01 T00421081  RH  040%=      5-min Rain = 0
KAD1 100117Z 06006KT 04/M08 A3036 RMK A01 T00431080  RH  040%=      5-min Rain = 0
KAD1 100118Z 06006KT 04/M08 A3036 RMK A01 T00421080  RH  041%=      5-min Rain = 0
KAD1 100119Z 06007KT 04/M08 A3036 RMK A01 T00391080  RH  042%=      5-min Rain = 0
KAD1 100120Z 06006KT 04/M08 A3036 RMK A01 T00361077  RH  043%=      5-min Rain = 0
KAD1 100121Z 07006KT 03/M08 A3036 RMK A01 T00331076  RH  045%=      5-min Rain = 0
KAD1 100122Z 07006KT 03/M08 A3036 RMK A01 T00331076  RH  045%=      5-min Rain = 0
KAD1 100123Z 07005KT 03/M08 A3036 RMK A01 T00321076  RH  045%=      5-min Rain = 0
KAD1 100124Z 07005KT 03/M08 A3036 RMK A01 T00321078  RH  044%=      5-min Rain = 0
KAD1 100125Z 08005KT 03/M08 A3036 RMK A01 T00331079  RH  044%=      5-min Rain = 0
KAD1 100126Z 08005KT 03/M08 A3036 RMK A01 T00341080  RH  043%=      5-min Rain = 0
KAD1 100127Z 08005KT 03/M08 A3036 RMK A01 T00341080  RH  043%=      5-min Rain = 0
KAD1 100128Z 08005KT 03/M08 A3036 RMK A01 T00341080  RH  043%=      5-min Rain = 0
KAD1 100129Z 08006KT 03/M08 A3036 RMK A01 T00341080  RH  043%=      5-min Rain = 0
KAD1 100130Z 08005KT 03/M08 A3036 RMK A01 T00331080  RH  043%=      5-min Rain = 0
KAD1 100131Z 08006KT 03/M08 A3036 RMK A01 T00331081  RH  043%=      5-min Rain = 0
KAD1 100132Z 08005KT 03/M08 A3036 RMK A01 T00331081  RH  043%=      5-min Rain = 0
KAD1 100133Z 08005KT 03/M08 A3036 RMK A01 T00321082  RH  043%=      5-min Rain = 0
KAD1 100134Z 08005KT 03/M08 A3036 RMK A01 T00311082  RH  043%=      5-min Rain = 0
KAD1 100135Z 09005KT 03/M08 A3036 RMK A01 T00311082  RH  043%=      5-min Rain = 0
KAD1 100136Z 09005KT 03/M08 A3036 RMK A01 T00311082  RH  043%=      5-min Rain = 0
KAD1 100137Z 09005KT 03/M08 A3036 RMK A01 T00301082  RH  044%=      5-min Rain = 0
KAD1 100138Z 09005KT 03/M08 A3036 RMK A01 T00301082  RH  044%=      5-min Rain = 0
KAD1 100139Z 10004KT 03/M08 A3036 RMK A01 T00291082  RH  044%=      5-min Rain = 0
KAD1 100140Z 10004KT 03/M08 A3036 RMK A01 T00271083  RH  044%=      5-min Rain = 0
KAD1 100141Z 09005KT 03/M08 A3036 RMK A01 T00251083  RH  045%=      5-min Rain = 0
KAD1 100142Z 09005KT 02/M08 A3036 RMK A01 T00231083  RH  045%=      5-min Rain = 0
KAD1 100143Z 09005KT 02/M08 A3036 RMK A01 T00221083  RH  046%=      5-min Rain = 0
KAD1 100144Z 10005KT 02/M08 A3036 RMK A01 T00221081  RH  046%=      5-min Rain = 0
KAD1 100145Z 10005KT 02/M08 A3036 RMK A01 T00221081  RH  046%=      5-min Rain = 0
KAD1 100146Z 10005KT 02/M08 A3036 RMK A01 T00211082  RH  047%=      5-min Rain = 0
KAD1 100147Z 10005KT 02/M08 A3036 RMK A01 T00211082  RH  047%=      5-min Rain = 0
KAD1 100148Z 10005KT 02/M08 A3036 RMK A01 T00211082  RH  047%=      5-min Rain = 0
KAD1 100149Z 10005KT 02/M08 A3036 RMK A01 T00211081  RH  047%=      5-min Rain = 0
KAD1 100150Z 10005KT 02/M08 A3036 RMK A01 T00221081  RH  047%=      5-min Rain = 0
KAD1 100151Z 09005KT 02/M08 A3036 RMK A01 T00221081  RH  046%=      5-min Rain = 0
KAD1 100152Z 09005KT 02/M08 A3036 RMK A01 T00231081  RH  046%=      5-min Rain = 0
KAD1 100153Z 09005KT 02/M08 A3037 RMK A01 T00241081  RH  046%=      5-min Rain = 0
KAD1 100154Z 09005KT 02/M08 A3037 RMK A01 T00241081  RH  046%=      5-min Rain = 0
KAD1 100155Z 09005KT 03/M08 A3037 RMK A01 T00251081  RH  046%=      5-min Rain = 0
KAD1 100156Z 09005KT 03/M08 A3037 RMK A01 T00261081  RH  045%=      5-min Rain = 0
KAD1 100157Z 09005KT 03/M08 A3037 RMK A01 T00261081  RH  045%=      5-min Rain = 0
KAD1 100158Z 08005KT 03/M08 A3037 RMK A01 T00271081  RH  045%=      5-min Rain = 0
KAD1 100159Z 08005KT 03/M08 A3037 RMK A01 T00271081  RH  045%=      5-min Rain = 0
KAD1 100200Z 09005KT 03/M08 A3037 RMK A01 T00271082  RH  045%=      5-min Rain = 0
KAD1 100201Z 08005KT 03/M08 A3037 RMK A01 T00271082  RH  045%=      5-min Rain = 0
KAD1 100202Z 08005KT 03/M08 A3037 RMK A01 T00271082  RH  045%=      5-min Rain = 0
KAD1 100203Z 08006KT 03/M08 A3037 RMK A01 T00261082  RH  045%=      5-min Rain = 0
KAD1 100204Z 09006KT 03/M08 A3037 RMK A01 T00271082  RH  045%=      5-min Rain = 0
KAD1 100205Z 09006KT 03/M08 A3037 RMK A01 T00261082  RH  045%=      5-min Rain = 0
KAD1 100206Z 09006KT 03/M08 A3037 RMK A01 T00261082  RH  045%=      5-min Rain = 0
KAD1 100207Z 09006KT 03/M08 A3037 RMK A01 T00261082  RH  045%=      5-min Rain = 0
KAD1 100208Z 09006KT 03/M08 A3037 RMK A01 T00261081  RH  045%=      5-min Rain = 0
KAD1 100209Z 09006KT 03/M08 A3037 RMK A01 T00271081  RH  045%=      5-min Rain = 0
KAD1 100210Z 09006KT 03/M08 A3037 RMK A01 T00261081  RH  045%=      5-min Rain = 0
KAD1 100211Z 09006KT 03/M08 A3037 RMK A01 T00261081  RH  045%=      5-min Rain = 0
KAD1 100212Z 09006KT 03/M08 A3037 RMK A01 T00251082  RH  045%=      5-min Rain = 0
KAD1 100213Z 09006KT 02/M08 A3037 RMK A01 T00241082  RH  045%=      5-min Rain = 0
KAD1 100214Z 09006KT 02/M08 A3037 RMK A01 T00231083  RH  045%=      5-min Rain = 0
KAD1 100215Z 09006KT 02/M08 A3036 RMK A01 T00221083  RH  046%=      5-min Rain = 0
KAD1 100216Z 09006KT 02/M08 A3036 RMK A01 T00211083  RH  046%=      5-min Rain = 0
KAD1 100217Z 09006KT 02/M08 A3036 RMK A01 T00211082  RH  046%=      5-min Rain = 0
KAD1 100218Z 09006KT 02/M08 A3037 RMK A01 T00201083  RH  046%=      5-min Rain = 0
KAD1 100219Z 09006KT 02/M08 A3037 RMK A01 T00191083  RH  047%=      5-min Rain = 0
KAD1 100220Z 10006KT 02/M08 A3037 RMK A01 T00181083  RH  047%=      5-min Rain = 0
KAD1 100221Z 10006KT 02/M08 A3037 RMK A01 T00171083  RH  048%=      5-min Rain = 0
KAD1 100222Z 10006KT 02/M08 A3037 RMK A01 T00161082  RH  048%=      5-min Rain = 0
KAD1 100223Z 10006KT 02/M08 A3037 RMK A01 T00161082  RH  048%=      5-min Rain = 0
KAD1 100224Z 10006KT 02/M08 A3037 RMK A01 T00151082  RH  048%=      5-min Rain = 0
KAD1 100225Z 10006KT 02/M08 A3037 RMK A01 T00151082  RH  049%=      5-min Rain = 0
KAD1 100226Z 10006KT 01/M08 A3037 RMK A01 T00141082  RH  049%=      5-min Rain = 0
KAD1 100227Z 11006KT 01/M08 A3037 RMK A01 T00141082  RH  049%=      5-min Rain = 0
KAD1 100228Z 11005KT 01/M08 A3037 RMK A01 T00131082  RH  049%=      5-min Rain = 0
KAD1 100229Z 12005KT 01/M08 A3037 RMK A01 T00101083  RH  050%=      5-min Rain = 0
KAD1 100230Z 11005KT 01/M08 A3037 RMK A01 T00091082  RH  050%=      5-min Rain = 0
KAD1 100231Z 11006KT 01/M08 A3037 RMK A01 T00071082  RH  051%=      5-min Rain = 0
KAD1 100232Z 11006KT 00/M08 A3037 RMK A01 T00031083  RH  052%=      5-min Rain = 0
KAD1 100233Z 11006KT 00/M08 A3037 RMK A01 T00011083  RH  053%=      5-min Rain = 0
KAD1 100234Z 11006KT M00/M08 A3036 RMK A01 T10011082  RH  054%=      5-min Rain = 0
KAD1 100235Z 12006KT M00/M08 A3036 RMK A01 T10021081  RH  055%=      5-min Rain = 0
KAD1 100236Z 12006KT M00/M08 A3036 RMK A01 T10021080  RH  056%=      5-min Rain = 0
KAD1 100237Z 12006KT M00/M08 A3036 RMK A01 T10021080  RH  056%=      5-min Rain = 0
KAD1 100238Z 12007KT M00/M08 A3036 RMK A01 T10031079  RH  056%=      5-min Rain = 0
KAD1 100239Z 12007KT M00/M08 A3036 RMK A01 T10031079  RH  056%=      5-min Rain = 0
KAD1 100240Z 11007KT M00/M08 A3036 RMK A01 T10031079  RH  056%=      5-min Rain = 0
KAD1 100241Z 11006KT M00/M08 A3036 RMK A01 T10031080  RH  056%=      5-min Rain = 0
KAD1 100242Z 12006KT M00/M08 A3036 RMK A01 T10021079  RH  056%=      5-min Rain = 0
KAD1 100243Z 12006KT M00/M08 A3036 RMK A01 T10021079  RH  056%=      5-min Rain = 0
KAD1 100244Z 12007KT M00/M08 A3036 RMK A01 T10021079  RH  056%=      5-min Rain = 0
KAD1 100245Z 12007KT M00/M08 A3036 RMK A01 T10021079  RH  056%=      5-min Rain = 0
KAD1 100246Z 12007KT M00/M08 A3036 RMK A01 T10041079  RH  057%=      5-min Rain = 0
KAD1 100247Z 13007KT M00/M08 A3036 RMK A01 T10041079  RH  057%=      5-min Rain = 0
KAD1 100248Z 13007KT M01/M08 A3036 RMK A01 T10051079  RH  057%=      5-min Rain = 0
KAD1 100249Z 13008KT M00/M08 A3036 RMK A01 T10041078  RH  058%=      5-min Rain = 0
KAD1 100250Z 13008KT M00/M08 A3036 RMK A01 T10041077  RH  058%=      5-min Rain = 0
KAD1 100251Z 13009KT M00/M08 A3036 RMK A01 T10041077  RH  058%=      5-min Rain = 0
KAD1 100252Z 13009KT M00/M08 A3036 RMK A01 T10031077  RH  058%=      5-min Rain = 0
KAD1 100253Z 13009KT M00/M08 A3036 RMK A01 T10031077  RH  057%=      5-min Rain = 0
KAD1 100254Z 13009KT M00/M08 A3036 RMK A01 T10021077  RH  057%=      5-min Rain = 0
KAD1 100255Z 12009KT M00/M08 A3036 RMK A01 T10021077  RH  057%=      5-min Rain = 0
KAD1 100256Z 12009KT M00/M08 A3036 RMK A01 T10021077  RH  057%=      5-min Rain = 0
KAD1 100257Z 12008KT M00/M08 A3036 RMK A01 T10021076  RH  057%=      5-min Rain = 0
KAD1 100258Z 12008KT M00/M08 A3036 RMK A01 T10021077  RH  057%=      5-min Rain = 0
KAD1 100259Z 12008KT M00/M08 A3036 RMK A01 T10021076  RH  057%=      5-min Rain = 0
KAD1 100300Z 12008KT M00/M08 A3036 RMK A01 T10021076  RH  057%=      5-min Rain = 0
KAD1 100301Z 12008KT M00/M08 A3036 RMK A01 T10021076  RH  057%=      5-min Rain = 0
KAD1 100302Z 13008KT M00/M08 A3036 RMK A01 T10021076  RH  057%=      5-min Rain = 0
KAD1 100303Z 13008KT M00/M08 A3036 RMK A01 T10021076  RH  057%=      5-min Rain = 0
KAD1 100304Z 12008KT M00/M08 A3037 RMK A01 T10011076  RH  057%=      5-min Rain = 0
KAD1 100305Z 12008KT M00/M08 A3037 RMK A01 T10021076  RH  057%=      5-min Rain = 0
KAD1 100306Z 12008KT M00/M08 A3037 RMK A01 T10021076  RH  057%=      5-min Rain = 0
KAD1 100307Z 12008KT M00/M08 A3037 RMK A01 T10011076  RH  057%=      5-min Rain = 0
KAD1 100308Z 12008KT M00/M08 A3037 RMK A01 T10011076  RH  057%=      5-min Rain = 0
KAD1 100309Z 12008KT 00/08 A3037 RMK A01 T00-00-76  RH  057%=      5-min Rain = 0
KAD1 100310Z 12008KT 00/08 A3037 RMK A01 T00-00-76  RH  057%=      5-min Rain = 0
KAD1 100311Z 12008KT M00/M08 A3037 RMK A01 T10011077  RH  057%=      5-min Rain = 0
KAD1 100312Z 12008KT M00/M08 A3037 RMK A01 T10011077  RH  057%=      5-min Rain = 0
KAD1 100313Z 12008KT M00/M08 A3037 RMK A01 T10011077  RH  057%=      5-min Rain = 0
KAD1 100314Z 12008KT M00/M08 A3037 RMK A01 T10011076  RH  057%=      5-min Rain = 0
KAD1 100315Z 12008KT M00/M08 A3037 RMK A01 T10011076  RH  057%=      5-min Rain = 0
KAD1 100316Z 12008KT M00/M08 A3037 RMK A01 T10011076  RH  057%=      5-min Rain = 0
KAD1 100317Z 11008KT M00/M08 A3037 RMK A01 T10011077  RH  057%=      5-min Rain = 0
KAD1 100318Z 11008KT M00/M08 A3037 RMK A01 T10011076  RH  057%=      5-min Rain = 0
KAD1 100319Z 11009KT M00/M08 A3037 RMK A01 T10011076  RH  057%=      5-min Rain = 0
KAD1 100320Z 11008KT M00/M08 A3037 RMK A01 T10011077  RH  057%=      5-min Rain = 0
KAD1 100321Z 11008KT M00/M08 A3037 RMK A01 T10021077  RH  057%=      5-min Rain = 0
KAD1 100322Z 11008KT M00/M08 A3037 RMK A01 T10031077  RH  057%=      5-min Rain = 0
KAD1 100323Z 11008KT M00/M08 A3037 RMK A01 T10041078  RH  058%=      5-min Rain = 0
KAD1 100324Z 12008KT M00/M08 A3037 RMK A01 T10041077  RH  058%=      5-min Rain = 0
KAD1 100325Z 12008KT M00/M08 A3037 RMK A01 T10041077  RH  058%=      5-min Rain = 0
KAD1 100326Z 12008KT M01/M08 A3037 RMK A01 T10051077  RH  058%=      5-min Rain = 0
KAD1 100327Z 11008KT M01/M08 A3037 RMK A01 T10061077  RH  059%=      5-min Rain = 0
KAD1 100328Z 12008KT M01/M08 A3037 RMK A01 T10061077  RH  059%=      5-min Rain = 0
KAD1 100329Z 12007KT M01/M08 A3037 RMK A01 T10061076  RH  059%=      5-min Rain = 0
KAD1 100330Z 12007KT M01/M08 A3037 RMK A01 T10071076  RH  059%=      5-min Rain = 0
KAD1 100331Z 12008KT M01/M08 A3037 RMK A01 T10071076  RH  060%=      5-min Rain = 0
KAD1 100332Z 12008KT M01/M08 A3037 RMK A01 T10081076  RH  060%=      5-min Rain = 0
KAD1 100333Z 12008KT M01/M08 A3037 RMK A01 T10081075  RH  060%=      5-min Rain = 0
KAD1 100334Z 12008KT M01/M08 A3037 RMK A01 T10081075  RH  060%=      5-min Rain = 0
KAD1 100335Z 12008KT M01/M08 A3037 RMK A01 T10081075  RH  060%=      5-min Rain = 0
KAD1 100336Z 12008KT M01/M08 A3037 RMK A01 T10081075  RH  060%=      5-min Rain = 0
KAD1 100337Z 12008KT M01/M08 A3037 RMK A01 T10081075  RH  060%=      5-min Rain = 0
KAD1 100338Z 12008KT M01/M08 A3037 RMK A01 T10071075  RH  060%=      5-min Rain = 0
KAD1 100339Z 12008KT M01/M07 A3037 RMK A01 T10071074  RH  060%=      5-min Rain = 0
KAD1 100340Z 12008KT M01/M07 A3037 RMK A01 T10071074  RH  060%=      5-min Rain = 0
KAD1 100341Z 12008KT M01/M07 A3037 RMK A01 T10071074  RH  060%=      5-min Rain = 0
KAD1 100342Z 11008KT M01/M07 A3037 RMK A01 T10061074  RH  060%=      5-min Rain = 0
KAD1 100343Z 11008KT M01/M07 A3037 RMK A01 T10051074  RH  060%=      5-min Rain = 0
KAD1 100344Z 11008KT M00/M07 A3037 RMK A01 T10041073  RH  059%=      5-min Rain = 0
KAD1 100345Z 11008KT M00/M07 A3037 RMK A01 T10031073  RH  059%=      5-min Rain = 0
KAD1 100346Z 11008KT M00/M07 A3037 RMK A01 T10031074  RH  059%=      5-min Rain = 0
KAD1 100347Z 12008KT M00/M07 A3037 RMK A01 T10031074  RH  059%=      5-min Rain = 0
KAD1 100348Z 12008KT M00/M07 A3037 RMK A01 T10031074  RH  059%=      5-min Rain = 0
KAD1 100349Z 12008KT M00/M07 A3037 RMK A01 T10031074  RH  059%=      5-min Rain = 0
KAD1 100350Z 12008KT M00/M07 A3037 RMK A01 T10031074  RH  059%=      5-min Rain = 0
KAD1 100351Z 12008KT M00/M07 A3037 RMK A01 T10041074  RH  059%=      5-min Rain = 0
KAD1 100352Z 12008KT M01/M07 A3037 RMK A01 T10051073  RH  060%=      5-min Rain = 0
KAD1 100353Z 12008KT M01/M07 A3037 RMK A01 T10051073  RH  060%=      5-min Rain = 0
KAD1 100354Z 12008KT M01/M07 A3037 RMK A01 T10061073  RH  061%=      5-min Rain = 0
KAD1 100355Z 12008KT M01/M07 A3037 RMK A01 T10061073  RH  061%=      5-min Rain = 0
KAD1 100356Z 12008KT M01/M07 A3037 RMK A01 T10071073  RH  061%=      5-min Rain = 0
KAD1 100357Z 12008KT M01/M07 A3037 RMK A01 T10071073  RH  061%=      5-min Rain = 0
KAD1 100358Z 12008KT M01/M07 A3037 RMK A01 T10071073  RH  061%=      5-min Rain = 0
KAD1 100359Z 12008KT M01/M07 A3037 RMK A01 T10081073  RH  061%=      5-min Rain = 0
KAD1 100400Z 13008KT M01/M07 A3037 RMK A01 T10081073  RH  062%=      5-min Rain = 0
KAD1 100401Z 13008KT M01/M07 A3037 RMK A01 T10081072  RH  062%=      5-min Rain = 0
KAD1 100402Z 13008KT M01/M07 A3037 RMK A01 T10081072  RH  062%=      5-min Rain = 0
KAD1 100403Z 13008KT M01/M07 A3037 RMK A01 T10081071  RH  062%=      5-min Rain = 0
KAD1 100404Z 12008KT M01/M07 A3037 RMK A01 T10081072  RH  062%=      5-min Rain = 0
KAD1 100405Z 12008KT M01/M07 A3037 RMK A01 T10081072  RH  061%=      5-min Rain = 0
KAD1 100406Z 13008KT M01/M07 A3037 RMK A01 T10071072  RH  061%=      5-min Rain = 0
KAD1 100407Z 13008KT M01/M07 A3037 RMK A01 T10081073  RH  061%=      5-min Rain = 0
KAD1 100408Z 12008KT M01/M07 A3037 RMK A01 T10081073  RH  061%=      5-min Rain = 0
KAD1 100409Z 12008KT M01/M07 A3037 RMK A01 T10081073  RH  061%=      5-min Rain = 0
KAD1 100410Z 12008KT M01/M07 A3037 RMK A01 T10071072  RH  061%=      5-min Rain = 0
KAD1 100411Z 12008KT M01/M07 A3037 RMK A01 T10071073  RH  061%=      5-min Rain = 0
KAD1 100412Z 12008KT M01/M07 A3037 RMK A01 T10061073  RH  061%=      5-min Rain = 0
KAD1 100413Z 12008KT M01/M07 A3037 RMK A01 T10061073  RH  061%=      5-min Rain = 0
KAD1 100414Z 13008KT M01/M07 A3037 RMK A01 T10061072  RH  061%=      5-min Rain = 0
KAD1 100415Z 13008KT M01/M07 A3037 RMK A01 T10071073  RH  061%=      5-min Rain = 0
KAD1 100416Z 13008KT M01/M07 A3037 RMK A01 T10081072  RH  062%=      5-min Rain = 0
KAD1 100417Z 13008KT M01/M07 A3037 RMK A01 T10081072  RH  062%=      5-min Rain = 0
KAD1 100418Z 13008KT M01/M07 A3037 RMK A01 T10081072  RH  062%=      5-min Rain = 0
KAD1 100419Z 13008KT M01/M07 A3037 RMK A01 T10081072  RH  062%=      5-min Rain = 0
KAD1 100420Z 13008KT M01/M07 A3037 RMK A01 T10091073  RH  062%=      5-min Rain = 0
KAD1 100421Z 14008KT M01/M08 A3037 RMK A01 T10111075  RH  062%=      5-min Rain = 0
KAD1 100422Z 14008KT M01/M08 A3037 RMK A01 T10141075  RH  063%=      5-min Rain = 0
KAD1 100423Z 13009KT M02/M08 A3037 RMK A01 T10151075  RH  063%=      5-min Rain = 0
KAD1 100424Z 13008KT M02/M07 A3037 RMK A01 T10151074  RH  064%=      5-min Rain = 0
KAD1 100425Z 13008KT M01/M07 A3037 RMK A01 T10141074  RH  064%=      5-min Rain = 0
KAD1 100426Z 13008KT M01/M07 A3037 RMK A01 T10121073  RH  063%=      5-min Rain = 0
KAD1 100427Z 13009KT M01/M07 A3037 RMK A01 T10111073  RH  063%=      5-min Rain = 0
KAD1 100428Z 13009KT M01/M07 A3037 RMK A01 T10111074  RH  063%=      5-min Rain = 0
KAD1 100429Z 13009KT M01/M07 A3037 RMK A01 T10111074  RH  063%=      5-min Rain = 0
KAD1 100430Z 13009KT M01/M07 A3037 RMK A01 T10121074  RH  063%=      5-min Rain = 0
KAD1 100431Z 14008KT M01/M07 A3037 RMK A01 T10121074  RH  063%=      5-min Rain = 0
KAD1 100432Z 14008KT M01/M08 A3037 RMK A01 T10131075  RH  063%=      5-min Rain = 0
KAD1 100433Z 14008KT M01/M08 A3037 RMK A01 T10141075  RH  063%=      5-min Rain = 0
KAD1 100434Z 14008KT M02/M08 A3037 RMK A01 T10151076  RH  064%=      5-min Rain = 0
KAD1 100435Z 14008KT M02/M08 A3037 RMK A01 T10161076  RH  064%=      5-min Rain = 0
KAD1 100436Z 14008KT M02/M08 A3037 RMK A01 T10171076  RH  064%=      5-min Rain = 0
KAD1 100437Z 14009KT M02/M08 A3037 RMK A01 T10171076  RH  064%=      5-min Rain = 0
KAD1 100438Z 14008KT M02/M08 A3037 RMK A01 T10171075  RH  064%=      5-min Rain = 0
KAD1 100439Z 14008KT M02/M08 A3037 RMK A01 T10161075  RH  064%=      5-min Rain = 0
KAD1 100440Z 14008KT M02/M08 A3037 RMK A01 T10151075  RH  064%=      5-min Rain = 0
KAD1 100441Z 14009KT M02/M08 A3037 RMK A01 T10151075  RH  063%=      5-min Rain = 0
KAD1 100442Z 14009KT M01/M08 A3037 RMK A01 T10141075  RH  063%=      5-min Rain = 0
KAD1 100443Z 14009KT M01/M08 A3037 RMK A01 T10141075  RH  063%=      5-min Rain = 0
KAD1 100444Z 14009KT M01/M07 A3037 RMK A01 T10141074  RH  063%=      5-min Rain = 0
KAD1 100445Z 14009KT M01/M07 A3037 RMK A01 T10131074  RH  063%=      5-min Rain = 0
KAD1 100446Z 14009KT M01/M07 A3037 RMK A01 T10131074  RH  063%=      5-min Rain = 0
KAD1 100447Z 14009KT M01/M07 A3037 RMK A01 T10121074  RH  063%=      5-min Rain = 0
KAD1 100448Z 14009KT M01/M07 A3037 RMK A01 T10121074  RH  063%=      5-min Rain = 0
KAD1 100449Z 14009KT M01/M07 A3037 RMK A01 T10121074  RH  063%=      5-min Rain = 0
KAD1 100450Z 15009KT M01/M07 A3037 RMK A01 T10121074  RH  063%=      5-min Rain = 0
KAD1 100451Z 15009KT M01/M07 A3037 RMK A01 T10121074  RH  063%=      5-min Rain = 0
KAD1 100452Z 15009KT M01/M07 A3037 RMK A01 T10121074  RH  063%=      5-min Rain = 0
KAD1 100453Z 16009KT M01/M07 A3037 RMK A01 T10121074  RH  063%=      5-min Rain = 0
KAD1 100454Z 16008KT M01/M08 A3037 RMK A01 T10131075  RH  063%=      5-min Rain = 0
KAD1 100455Z 16008KT M02/M08 A3037 RMK A01 T10151077  RH  063%=      5-min Rain = 0
KAD1 100456Z 16009KT M02/M08 A3037 RMK A01 T10151077  RH  063%=      5-min Rain = 0
KAD1 100457Z 16009KT M02/M08 A3037 RMK A01 T10161078  RH  063%=      5-min Rain = 0
KAD1 100458Z 15008KT M02/M08 A3037 RMK A01 T10171078  RH  063%=      5-min Rain = 0
KAD1 100459Z 15008KT M02/M08 A3037 RMK A01 T10171077  RH  064%=      5-min Rain = 0
KAD1 100500Z 15008KT M02/M08 A3037 RMK A01 T10171077  RH  064%=      5-min Rain = 0
KAD1 100501Z 15008KT M02/M08 A3037 RMK A01 T10171077  RH  063%=      5-min Rain = 0
KAD1 100502Z 15008KT M02/M08 A3037 RMK A01 T10161077  RH  063%=      5-min Rain = 0
KAD1 100503Z 15008KT M02/M08 A3037 RMK A01 T10161077  RH  063%=      5-min Rain = 0
KAD1 100504Z 15008KT M02/M08 A3037 RMK A01 T10171078  RH  063%=      5-min Rain = 0
KAD1 100505Z 16008KT M02/M08 A3037 RMK A01 T10181078  RH  064%=      5-min Rain = 0
KAD1 100506Z 16008KT M02/M08 A3037 RMK A01 T10191078  RH  064%=      5-min Rain = 0
KAD1 100507Z 16008KT M02/M08 A3037 RMK A01 T10191078  RH  064%=      5-min Rain = 0
KAD1 100508Z 16008KT M02/M08 A3037 RMK A01 T10191078  RH  064%=      5-min Rain = 0
KAD1 100509Z 16008KT M02/M08 A3037 RMK A01 T10201079  RH  064%=      5-min Rain = 0
KAD1 100510Z 16008KT M02/M08 A3037 RMK A01 T10211079  RH  064%=      5-min Rain = 0
KAD1 100511Z 16008KT M02/M08 A3037 RMK A01 T10211079  RH  064%=      5-min Rain = 0
KAD1 100512Z 16008KT M02/M08 A3037 RMK A01 T10221079  RH  065%=      5-min Rain = 0
KAD1 100513Z 16008KT M02/M08 A3037 RMK A01 T10211078  RH  065%=      5-min Rain = 0
KAD1 100514Z 17008KT M02/M08 A3037 RMK A01 T10211078  RH  065%=      5-min Rain = 0
KAD1 100515Z 17008KT M02/M08 A3037 RMK A01 T10211078  RH  065%=      5-min Rain = 0
KAD1 100516Z 17008KT M02/M08 A3037 RMK A01 T10211077  RH  065%=      5-min Rain = 0
KAD1 100517Z 17009KT M02/M08 A3037 RMK A01 T10221077  RH  066%=      5-min Rain = 0
KAD1 100518Z 17009KT M02/M08 A3037 RMK A01 T10221077  RH  066%=      5-min Rain = 0
KAD1 100519Z 17009KT M02/M08 A3037 RMK A01 T10221077  RH  066%=      5-min Rain = 0
KAD1 100520Z 17009KT M02/M08 A3037 RMK A01 T10211076  RH  066%=      5-min Rain = 0
KAD1 100521Z 17008KT M02/M08 A3037 RMK A01 T10201075  RH  066%=      5-min Rain = 0
KAD1 100522Z 17009KT M02/M08 A3037 RMK A01 T10191075  RH  065%=      5-min Rain = 0
KAD1 100523Z 18009KT M02/M08 A3037 RMK A01 T10191075  RH  065%=      5-min Rain = 0
KAD1 100524Z 18009KT M02/M08 A3037 RMK A01 T10191076  RH  065%=      5-min Rain = 0
KAD1 100525Z 18009KT M02/M08 A3037 RMK A01 T10191076  RH  065%=      5-min Rain = 0
KAD1 100526Z 18009KT M02/M08 A3037 RMK A01 T10181076  RH  065%=      5-min Rain = 0
KAD1 100527Z 18009KT M02/M08 A3037 RMK A01 T10181075  RH  065%=      5-min Rain = 0
KAD1 100528Z 18009KT M02/M08 A3037 RMK A01 T10181076  RH  065%=      5-min Rain = 0
KAD1 100529Z 18009KT M02/M08 A3037 RMK A01 T10181076  RH  065%=      5-min Rain = 0
KAD1 100530Z 18009KT M02/M08 A3037 RMK A01 T10181076  RH  065%=      5-min Rain = 0
KAD1 100531Z 18009KT M02/M08 A3037 RMK A01 T10181076  RH  065%=      5-min Rain = 0
KAD1 100532Z 18009KT M02/M08 A3037 RMK A01 T10181076  RH  064%=      5-min Rain = 0
KAD1 100533Z 18009KT M02/M08 A3037 RMK A01 T10181076  RH  064%=      5-min Rain = 0
KAD1 100534Z 18009KT M02/M08 A3037 RMK A01 T10181077  RH  064%=      5-min Rain = 0
KAD1 100535Z 18009KT M02/M08 A3037 RMK A01 T10181077  RH  064%=      5-min Rain = 0
KAD1 100536Z 18009KT M02/M08 A3037 RMK A01 T10191077  RH  064%=      5-min Rain = 0
KAD1 100537Z 18009KT M02/M08 A3037 RMK A01 T10191077  RH  064%=      5-min Rain = 0
KAD1 100538Z 18009KT M02/M08 A3037 RMK A01 T10191077  RH  065%=      5-min Rain = 0
KAD1 100539Z 18009KT M02/M08 A3037 RMK A01 T10191077  RH  065%=      5-min Rain = 0
KAD1 100540Z 18010KT M02/M08 A3037 RMK A01 T10191076  RH  065%=      5-min Rain = 0
KAD1 100541Z 18010KT M02/M08 A3037 RMK A01 T10191077  RH  065%=      5-min Rain = 0
KAD1 100542Z 18010KT M02/M08 A3037 RMK A01 T10191077  RH  065%=      5-min Rain = 0
KAD1 100543Z 18010KT M02/M08 A3037 RMK A01 T10191077  RH  065%=      5-min Rain = 0
KAD1 100544Z 18010KT M02/M08 A3037 RMK A01 T10191077  RH  065%=      5-min Rain = 0
KAD1 100545Z 18010KT M02/M08 A3037 RMK A01 T10201077  RH  065%=      5-min Rain = 0
KAD1 100546Z 18010KT M02/M08 A3037 RMK A01 T10201077  RH  065%=      5-min Rain = 0
KAD1 100547Z 18010KT M02/M08 A3037 RMK A01 T10201077  RH  065%=      5-min Rain = 0
KAD1 100548Z 18010KT M02/M08 A3037 RMK A01 T10201077  RH  065%=      5-min Rain = 0
KAD1 100549Z 18010KT M02/M08 A3037 RMK A01 T10201078  RH  065%=      5-min Rain = 0
KAD1 100550Z 18009KT M02/M08 A3037 RMK A01 T10211078  RH  065%=      5-min Rain = 0
KAD1 100551Z 19009KT M02/M08 A3037 RMK A01 T10211078  RH  065%=      5-min Rain = 0
KAD1 100552Z 18009KT M02/M08 A3037 RMK A01 T10211078  RH  065%=      5-min Rain = 0
KAD1 100553Z 18010KT M02/M08 A3037 RMK A01 T10221078  RH  065%=      5-min Rain = 0
KAD1 100554Z 18010KT M02/M08 A3037 RMK A01 T10231078  RH  066%=      5-min Rain = 0
KAD1 100555Z 18010KT M02/M08 A3037 RMK A01 T10241078  RH  066%=      5-min Rain = 0
KAD1 100556Z 18010KT M02/M08 A3037 RMK A01 T10221077  RH  066%=      5-min Rain = 0
KAD1 100557Z 18010KT M02/M08 A3037 RMK A01 T10201076  RH  066%=      5-min Rain = 0
KAD1 100558Z 18010KT M02/M08 A3037 RMK A01 T10201076  RH  065%=      5-min Rain = 0
KAD1 100559Z 18010KT M02/M08 A3037 RMK A01 T10191076  RH  065%=      5-min Rain = 0

Page generated in 0.1873 seconds.